Time,TemperatureF,DewpointF,PressureIn,WindDirection,WindDirectionDegrees,WindSpeedMPH,WindSpeedGustMPH,Humidity,HourlyPrecipIn,Conditions,Clouds,dailyrainin,SoftwareType,DateUTC
2013-01-14 01:00:00,55.7,55.7,29.91,NNE,27,8.1,22.7,100,0.02,,SKC,0.00,VWS V14.01,2013-01-14 06:00:00,
2013-01-14 01:01:00,43.2,43.2,29.97,NE,34,5.2,10.6,100,0.16,,SKC,0.00,VWS V14.01,2013-01-14 06:01:00,
2013-01-14 01:02:00,43.2,43.2,29.97,NNE,27,5.2,10.6,100,0.16,,SKC,0.00,VWS V14.01,2013-01-14 06:02:00,
2013-01-14 01:03:00,43.2,43.2,29.97,ENE,66,6.2,10.6,100,0.16,,SKC,0.00,VWS V14.01,2013-01-14 06:03:00,
2013-01-14 01:04:00,43.3,43.3,29.97,ENE,60,7.2,10.6,100,0.16,,SKC,0.00,VWS V14.01,2013-01-14 06:04:00,
2013-01-14 01:05:00,55.5,55.5,29.91,NE,37,9.1,16.5,100,0.00,,SKC,0.00,VWS V14.01,2013-01-14 06:05:00,
2013-01-14 01:06:00,43.3,43.3,29.97,ENE,68,6.0,14.0,100,0.16,,SKC,0.00,VWS V14.01,2013-01-14 06:06:00,
2013-01-14 01:07:00,43.3,43.3,29.97,NNE,30,7.9,14.0,100,0.16,,SKC,0.00,VWS V14.01,2013-01-14 06:07:00,
2013-01-14 01:08:00,43.3,43.3,29.97,ENE,62,6.5,14.0,100,0.16,,SKC,0.00,VWS V14.01,2013-01-14 06:08:00,
2013-01-14 01:09:00,55.5,55.5,29.91,NE,55,10.8,12.4,100,0.00,,SKC,0.00,VWS V14.01,2013-01-14 06:09:00,
2013-01-14 01:10:00,55.5,55.5,29.91,NE,35,13.3,13.3,100,0.00,,SKC,0.00,VWS V14.01,2013-01-14 06:10:00,
2013-01-14 01:11:00,43.3,43.3,29.97,NNE,31,7.0,14.0,100,0.16,,SKC,0.00,VWS V14.01,2013-01-14 06:11:00,
2013-01-14 01:12:00,43.3,43.3,29.97,NE,45,6.2,14.0,100,0.16,,SKC,0.00,VWS V14.01,2013-01-14 06:12:00,
2013-01-14 01:13:00,43.3,43.3,29.97,ENE,69,3.2,14.0,100,0.16,,SKC,0.00,VWS V14.01,2013-01-14 06:13:00,
2013-01-14 01:14:00,43.3,43.3,29.97,NNE,31,4.4,14.0,100,0.16,,SKC,0.00,VWS V14.01,2013-01-14 06:14:00,
2013-01-14 01:15:00,55.3,55.3,29.91,NNE,21,16.8,16.8,100,0.00,,SKC,0.00,VWS V14.01,2013-01-14 06:15:00,
2013-01-14 01:16:00,55.3,55.3,29.91,NNE,14,12.1,17.0,100,0.00,,SKC,0.00,VWS V14.01,2013-01-14 06:16:00,
2013-01-14 01:17:00,43.5,43.5,29.97,NE,42,3.9,14.0,100,0.16,,SKC,0.00,VWS V14.01,2013-01-14 06:17:00,
2013-01-14 01:18:00,43.4,43.4,29.97,NE,55,3.7,14.0,100,0.16,,SKC,0.00,VWS V14.01,2013-01-14 06:18:00,
2013-01-14 01:19:00,43.5,43.5,29.97,NE,44,7.1,14.0,100,0.16,,SKC,0.00,VWS V14.01,2013-01-14 06:19:00,
2013-01-14 01:20:00,55.2,55.2,29.92,North,7,10.5,17.4,100,0.00,,SKC,0.00,VWS V14.01,2013-01-14 06:20:00,
2013-01-14 01:21:00,55.2,55.2,29.92,NNE,21,12.9,13.0,100,0.00,,SKC,0.00,VWS V14.01,2013-01-14 06:21:00,
2013-01-14 01:22:00,43.6,43.6,29.97,NNE,14,9.3,14.0,100,0.16,,SKC,0.00,VWS V14.01,2013-01-14 06:22:00,
2013-01-14 01:23:00,43.5,43.5,29.97,NE,53,5.2,14.0,100,0.16,,SKC,0.00,VWS V14.01,2013-01-14 06:23:00,
2013-01-14 01:24:00,43.6,43.6,29.97,ESE,112,6.2,14.0,100,0.16,,SKC,0.00,VWS V14.01,2013-01-14 06:24:00,
2013-01-14 01:25:00,55.1,55.1,29.92,NNW,346,13.7,14.4,100,0.00,,SKC,0.00,VWS V14.01,2013-01-14 06:25:00,
2013-01-14 01:26:00,55.1,55.1,29.92,North,8,10.3,11.9,100,0.00,,SKC,0.00,VWS V14.01,2013-01-14 06:26:00,
2013-01-14 01:27:00,43.6,43.7,29.96,NE,56,7.6,14.0,100,0.16,,SKC,0.00,VWS V14.01,2013-01-14 06:27:00,
2013-01-14 01:28:00,43.7,43.7,29.96,NE,46,11.2,14.0,100,0.16,,SKC,0.00,VWS V14.01,2013-01-14 06:28:00,
2013-01-14 01:29:00,43.8,43.8,29.96,NE,44,7.6,14.0,100,0.16,,SKC,0.00,VWS V14.01,2013-01-14 06:29:00,
2013-01-14 01:30:00,55.0,55.0,29.91,NNE,30,6.8,13.0,100,0.00,,SKC,0.00,VWS V14.01,2013-01-14 06:30:00,
2013-01-14 01:31:00,55.0,55.0,29.91,NNE,22,4.8,11.7,100,0.00,,SKC,0.00,VWS V14.01,2013-01-14 06:31:00,
2013-01-14 01:32:00,43.9,43.9,29.96,NE,39,8.8,14.0,100,0.16,,SKC,0.00,VWS V14.01,2013-01-14 06:32:00,
2013-01-14 01:33:00,43.9,43.9,29.96,East,80,6.9,14.0,100,0.16,,SKC,0.00,VWS V14.01,2013-01-14 06:33:00,
2013-01-14 01:34:00,44.0,44.0,29.96,ENE,59,6.5,14.0,100,0.16,,SKC,0.00,VWS V14.01,2013-01-14 06:34:00,
2013-01-14 01:35:00,55.0,55.0,29.91,NNE,15,7.6,8.5,100,0.01,,SKC,0.01,VWS V14.01,2013-01-14 06:35:00,
2013-01-14 01:36:00,55.0,55.0,29.91,NNE,24,7.6,9.3,100,0.01,,SKC,0.01,VWS V14.01,2013-01-14 06:36:00,
2013-01-14 01:37:00,44.0,44.0,29.96,NNE,24,9.7,14.0,100,0.16,,SKC,0.00,VWS V14.01,2013-01-14 06:37:00,
2013-01-14 01:38:00,44.0,44.0,29.96,ENE,77,5.3,14.0,100,0.16,,SKC,0.00,VWS V14.01,2013-01-14 06:38:00,
2013-01-14 01:39:00,44.1,44.1,29.95,ENE,63,6.8,14.0,100,0.16,,SKC,0.00,VWS V14.01,2013-01-14 06:39:00,
2013-01-14 01:40:00,54.9,54.8,29.92,North,6,13.5,15.8,100,0.01,,SKC,0.01,VWS V14.01,2013-01-14 06:40:00,
2013-01-14 01:41:00,54.8,54.8,29.92,NE,35,12.9,12.9,100,0.01,,SKC,0.01,VWS V14.01,2013-01-14 06:41:00,
2013-01-14 01:42:00,44.1,44.1,29.95,ESE,105,3.9,14.0,100,0.16,,SKC,0.00,VWS V14.01,2013-01-14 06:42:00,
2013-01-14 01:43:00,44.2,44.2,29.95,East,93,6.8,14.0,100,0.16,,SKC,0.00,VWS V14.01,2013-01-14 06:43:00,
2013-01-14 01:44:00,44.3,44.3,29.95,East,89,7.0,14.0,100,0.16,,SKC,0.00,VWS V14.01,2013-01-14 06:44:00,
2013-01-14 01:45:00,54.6,54.6,29.92,NNE,17,8.1,10.6,100,0.02,,SKC,0.02,VWS V14.01,2013-01-14 06:45:00,
2013-01-14 01:46:00,54.7,54.7,29.92,NE,44,5.1,10.6,100,0.02,,SKC,0.02,VWS V14.01,2013-01-14 06:46:00,
2013-01-14 01:47:00,44.3,44.3,29.95,East,80,6.6,14.2,100,0.16,,SKC,0.00,VWS V14.01,2013-01-14 06:47:00,
2013-01-14 01:48:00,44.3,44.3,29.95,NE,56,4.8,14.2,100,0.16,,SKC,0.00,VWS V14.01,2013-01-14 06:48:00,
2013-01-14 01:49:00,44.4,44.4,29.94,NNE,21,11.0,14.2,100,0.17,,SKC,0.01,VWS V14.01,2013-01-14 06:49:00,
2013-01-14 01:50:00,54.4,54.4,29.92,NNE,21,9.4,12.3,100,0.03,,SKC,0.03,VWS V14.01,2013-01-14 06:50:00,
2013-01-14 01:51:00,54.4,54.4,29.92,NNE,22,6.9,12.3,100,0.03,,SKC,0.03,VWS V14.01,2013-01-14 06:51:00,
2013-01-14 01:52:00,44.5,44.5,29.95,NE,56,8.9,14.2,100,0.17,,SKC,0.01,VWS V14.01,2013-01-14 06:52:00,
2013-01-14 01:53:00,44.6,44.6,29.95,ENE,69,6.0,14.2,100,0.17,,SKC,0.01,VWS V14.01,2013-01-14 06:53:00,
2013-01-14 01:54:00,44.7,44.7,29.95,ENE,72,6.6,14.2,100,0.17,,SKC,0.01,VWS V14.01,2013-01-14 06:54:00,
2013-01-14 01:55:00,54.1,54.1,29.92,NE,39,5.5,11.2,100,0.03,,SKC,0.03,VWS V14.01,2013-01-14 06:55:00,
2013-01-14 01:56:00,54.1,54.1,29.92,NE,37,6.6,11.2,100,0.03,,SKC,0.03,VWS V14.01,2013-01-14 06:56:00,
2013-01-14 01:57:00,54.1,54.1,29.92,NE,49,9.7,9.7,100,0.03,,SKC,0.03,VWS V14.01,2013-01-14 06:57:00,
2013-01-14 01:58:00,44.6,44.6,29.95,NE,49,7.5,14.2,100,0.17,,SKC,0.01,VWS V14.01,2013-01-14 06:58:00,
2013-01-14 01:59:00,44.7,44.7,29.95,NE,48,7.9,14.2,100,0.17,,SKC,0.01,VWS V14.01,2013-01-14 06:59:00,
2013-01-14 02:00:00,53.9,53.9,29.92,North,11,9.6,13.8,100,0.03,,SKC,0.03,VWS V14.01,2013-01-14 07:00:00,
2013-01-14 02:01:00,53.9,53.9,29.92,NNE,14,11.6,13.8,100,0.03,,SKC,0.03,VWS V14.01,2013-01-14 07:01:00,
2013-01-14 02:02:00,53.9,54.0,29.92,NNE,31,10.6,13.0,100,0.03,,SKC,0.03,VWS V14.01,2013-01-14 07:02:00,
2013-01-14 02:03:00,44.8,44.8,29.95,NE,37,6.0,14.2,100,0.18,,SKC,0.02,VWS V14.01,2013-01-14 07:03:00,
2013-01-14 02:04:00,44.9,44.9,29.96,North,0,9.7,14.2,100,0.18,,SKC,0.02,VWS V14.01,2013-01-14 07:04:00,
2013-01-14 02:05:00,44.9,44.9,29.95,NNE,24,5.3,14.2,100,0.18,,SKC,0.02,VWS V14.01,2013-01-14 07:05:00,
2013-01-14 02:06:00,54.0,54.0,29.93,NNE,25,7.8,14.0,100,0.03,,SKC,0.03,VWS V14.01,2013-01-14 07:06:00,
2013-01-14 02:07:00,54.0,54.0,29.92,NNE,30,9.6,10.5,100,0.03,,SKC,0.03,VWS V14.01,2013-01-14 07:07:00,
2013-01-14 02:11:00,53.9,53.9,29.92,NNE,20,8.9,10.7,100,0.04,,SKC,0.04,VWS V14.01,2013-01-14 07:11:00,
2013-01-14 02:12:00,54.0,54.0,29.92,NE,34,5.7,9.1,100,0.04,,SKC,0.04,VWS V14.01,2013-01-14 07:12:00,
2013-01-14 02:16:00,53.9,53.9,29.92,NNE,28,7.5,8.7,100,0.04,,SKC,0.04,VWS V14.01,2013-01-14 07:16:00,
2013-01-14 02:17:00,53.9,53.9,29.93,NNE,17,8.8,13.9,100,0.05,,SKC,0.05,VWS V14.01,2013-01-14 07:17:00,
2013-01-14 02:21:00,53.7,53.7,29.92,North,6,11.0,16.0,100,0.05,,SKC,0.05,VWS V14.01,2013-01-14 07:21:00,
2013-01-14 02:22:00,53.7,53.7,29.92,NNE,32,8.9,12.1,100,0.05,,SKC,0.05,VWS V14.01,2013-01-14 07:22:00,
2013-01-14 02:26:00,53.7,53.7,29.92,ENE,58,7.1,11.1,100,0.05,,SKC,0.05,VWS V14.01,2013-01-14 07:26:00,
2013-01-14 02:27:00,53.7,53.7,29.92,ENE,72,6.8,13.5,100,0.05,,SKC,0.05,VWS V14.01,2013-01-14 07:27:00,
2013-01-14 02:28:00,53.6,53.6,29.92,NE,37,8.8,15.0,100,0.05,,SKC,0.05,VWS V14.01,2013-01-14 07:28:00,
2013-01-14 02:31:00,53.6,53.6,29.92,NE,52,4.4,12.9,100,0.05,,SKC,0.05,VWS V14.01,2013-01-14 07:31:00,
2013-01-14 02:32:00,53.5,53.5,29.92,NNE,25,9.6,10.4,100,0.05,,SKC,0.05,VWS V14.01,2013-01-14 07:32:00,
2013-01-14 02:33:00,53.5,53.5,29.92,North,7,9.9,12.7,100,0.05,,SKC,0.05,VWS V14.01,2013-01-14 07:33:00,
2013-01-14 02:36:00,53.4,53.4,29.93,NE,37,6.3,12.9,100,0.04,,SKC,0.05,VWS V14.01,2013-01-14 07:36:00,
2013-01-14 02:37:00,53.4,53.4,29.93,NNE,15,9.8,9.8,100,0.04,,SKC,0.05,VWS V14.01,2013-01-14 07:37:00,
2013-01-14 02:38:00,53.4,53.4,29.93,NNE,21,12.2,14.9,100,0.04,,SKC,0.05,VWS V14.01,2013-01-14 07:38:00,
2013-01-14 02:41:00,53.3,53.3,29.93,North,4,16.5,16.5,100,0.04,,SKC,0.05,VWS V14.01,2013-01-14 07:41:00,
2013-01-14 02:42:00,53.3,53.3,29.93,NNE,27,11.4,11.5,100,0.04,,SKC,0.05,VWS V14.01,2013-01-14 07:42:00,
2013-01-14 02:43:00,53.2,53.3,29.93,NE,55,14.0,14.0,100,0.04,,SKC,0.05,VWS V14.01,2013-01-14 07:43:00,
2013-01-14 02:46:00,53.2,53.2,29.93,ENE,65,6.3,7.0,100,0.03,,SKC,0.05,VWS V14.01,2013-01-14 07:46:00,
2013-01-14 02:47:00,53.2,53.2,29.93,NNE,20,9.1,11.7,100,0.02,,SKC,0.05,VWS V14.01,2013-01-14 07:47:00,
2013-01-14 02:48:00,53.1,53.1,29.93,ENE,65,9.6,11.6,100,0.02,,SKC,0.05,VWS V14.01,2013-01-14 07:48:00,
2013-01-14 02:51:00,53.1,53.1,29.93,NNE,31,10.5,16.3,100,0.02,,SKC,0.05,VWS V14.01,2013-01-14 07:51:00,
2013-01-14 02:52:00,53.0,53.0,29.93,NE,51,8.0,12.5,100,0.02,,SKC,0.05,VWS V14.01,2013-01-14 07:52:00,
2013-01-14 02:53:00,53.1,53.1,29.93,NE,49,13.5,13.5,100,0.02,,SKC,0.05,VWS V14.01,2013-01-14 07:53:00,
2013-01-14 02:56:00,53.0,53.0,29.93,NE,53,10.4,12.9,100,0.02,,SKC,0.05,VWS V14.01,2013-01-14 07:56:00,
2013-01-14 02:57:00,53.0,53.0,29.92,NNE,22,8.3,10.5,100,0.02,,SKC,0.05,VWS V14.01,2013-01-14 07:57:00,
2013-01-14 02:58:00,52.9,52.9,29.92,ENE,63,7.8,11.1,100,0.02,,SKC,0.05,VWS V14.01,2013-01-14 07:58:00,
2013-01-14 03:01:00,52.9,52.9,29.92,NNE,20,10.1,14.9,100,0.02,,SKC,0.05,VWS V14.01,2013-01-14 08:01:00,
2013-01-14 03:02:00,52.8,52.8,29.92,NE,45,5.4,9.6,100,0.02,,SKC,0.05,VWS V14.01,2013-01-14 08:02:00,
2013-01-14 03:03:00,52.8,52.8,29.92,NE,37,12.9,16.3,100,0.02,,SKC,0.05,VWS V14.01,2013-01-14 08:03:00,
2013-01-14 03:06:00,52.8,52.8,29.92,NNE,28,8.7,9.8,100,0.02,,SKC,0.05,VWS V14.01,2013-01-14 08:06:00,
2013-01-14 03:07:00,52.8,52.8,29.92,NNE,13,13.9,13.9,100,0.02,,SKC,0.05,VWS V14.01,2013-01-14 08:07:00,
2013-01-14 03:08:00,52.8,52.8,29.92,NE,38,9.6,11.4,100,0.02,,SKC,0.05,VWS V14.01,2013-01-14 08:08:00,
2013-01-14 03:11:00,52.7,52.7,29.93,NNE,31,7.7,14.0,100,0.01,,SKC,0.05,VWS V14.01,2013-01-14 08:11:00,
2013-01-14 03:12:00,52.7,52.7,29.93,NNE,18,15.0,16.9,100,0.01,,SKC,0.05,VWS V14.01,2013-01-14 08:12:00,
2013-01-14 03:13:00,52.7,52.7,29.93,NE,56,12.1,12.1,100,0.01,,SKC,0.05,VWS V14.01,2013-01-14 08:13:00,
2013-01-14 03:16:00,52.7,52.7,29.93,North,6,9.5,13.8,100,0.01,,SKC,0.05,VWS V14.01,2013-01-14 08:16:00,
2013-01-14 03:17:00,52.6,52.6,29.93,NNE,22,14.7,14.8,100,0.00,,SKC,0.05,VWS V14.01,2013-01-14 08:17:00,
2013-01-14 03:18:00,52.6,52.6,29.93,NNE,27,9.1,13.2,100,0.00,,SKC,0.05,VWS V14.01,2013-01-14 08:18:00,
2013-01-14 03:21:00,52.5,52.5,29.93,NNE,24,10.8,12.2,100,0.00,,SKC,0.05,VWS V14.01,2013-01-14 08:21:00,
2013-01-14 03:22:00,52.4,52.4,29.93,NE,37,12.6,13.2,100,0.00,,SKC,0.05,VWS V14.01,2013-01-14 08:22:00,
2013-01-14 03:23:00,52.4,52.4,29.93,NNE,22,12.1,15.6,100,0.00,,SKC,0.05,VWS V14.01,2013-01-14 08:23:00,
2013-01-14 03:26:00,52.4,52.4,29.93,NNE,21,13.3,13.3,100,0.00,,SKC,0.05,VWS V14.01,2013-01-14 08:26:00,
2013-01-14 03:27:00,52.3,52.3,29.93,North,7,13.0,17.8,100,0.00,,SKC,0.05,VWS V14.01,2013-01-14 08:27:00,
2013-01-14 03:28:00,52.3,52.3,29.94,North,11,11.4,11.4,100,0.00,,SKC,0.05,VWS V14.01,2013-01-14 08:28:00,
2013-01-14 03:31:00,52.2,52.2,29.93,NE,46,4.7,14.4,100,0.00,,SKC,0.05,VWS V14.01,2013-01-14 08:31:00,
2013-01-14 03:32:00,52.2,52.2,29.93,NNE,18,7.7,9.2,100,0.00,,SKC,0.05,VWS V14.01,2013-01-14 08:32:00,
2013-01-14 03:33:00,52.2,52.2,29.93,NNE,20,7.8,7.8,100,0.00,,SKC,0.05,VWS V14.01,2013-01-14 08:33:00,
2013-01-14 03:34:00,52.2,52.2,29.93,NNE,14,10.7,13.6,100,0.00,,SKC,0.05,VWS V14.01,2013-01-14 08:34:00,
2013-01-14 03:37:00,52.1,52.1,29.93,NE,44,10.4,15.0,100,0.00,,SKC,0.05,VWS V14.01,2013-01-14 08:37:00,
2013-01-14 03:38:00,52.1,52.1,29.93,ENE,65,10.1,10.1,100,0.00,,SKC,0.05,VWS V14.01,2013-01-14 08:38:00,
2013-01-14 03:39:00,52.1,52.1,29.93,NNE,14,13.2,16.2,100,0.00,,SKC,0.05,VWS V14.01,2013-01-14 08:39:00,
2013-01-14 03:42:00,52.1,52.1,29.93,NE,45,8.9,13.7,100,0.00,,SKC,0.05,VWS V14.01,2013-01-14 08:42:00,
2013-01-14 03:43:00,52.1,52.1,29.93,NE,34,8.6,14.7,100,0.00,,SKC,0.05,VWS V14.01,2013-01-14 08:43:00,
2013-01-14 03:44:00,52.1,52.1,29.93,NNE,15,12.1,12.1,100,0.00,,SKC,0.05,VWS V14.01,2013-01-14 08:44:00,
2013-01-14 03:47:00,52.1,52.1,29.93,NNE,21,10.5,11.7,100,0.00,,SKC,0.05,VWS V14.01,2013-01-14 08:47:00,
2013-01-14 03:48:00,52.1,52.1,29.93,North,8,10.3,15.8,100,0.00,,SKC,0.05,VWS V14.01,2013-01-14 08:48:00,
2013-01-14 03:49:00,52.1,52.1,29.93,NNE,21,10.6,12.2,100,0.00,,SKC,0.05,VWS V14.01,2013-01-14 08:49:00,
2013-01-14 03:52:00,52.1,52.1,29.93,NNE,32,8.5,8.5,100,0.00,,SKC,0.05,VWS V14.01,2013-01-14 08:52:00,
2013-01-14 03:53:00,52.1,52.1,29.93,NNE,25,8.7,10.7,100,0.00,,SKC,0.05,VWS V14.01,2013-01-14 08:53:00,
2013-01-14 03:54:00,52.1,52.1,29.93,NNE,28,7.8,11.3,100,0.00,,SKC,0.05,VWS V14.01,2013-01-14 08:54:00,
2013-01-14 03:57:00,52.1,52.1,29.93,NE,34,7.5,13.6,100,0.00,,SKC,0.05,VWS V14.01,2013-01-14 08:57:00,
2013-01-14 03:58:00,52.1,52.1,29.93,NNE,25,5.7,9.8,100,0.00,,SKC,0.05,VWS V14.01,2013-01-14 08:58:00,
2013-01-14 03:59:00,52.1,52.1,29.93,NNE,18,9.4,9.8,100,0.00,,SKC,0.05,VWS V14.01,2013-01-14 08:59:00,
2013-01-14 04:02:00,52.1,52.1,29.93,NE,51,11.3,14.6,100,0.00,,SKC,0.05,VWS V14.01,2013-01-14 09:02:00,
2013-01-14 04:03:00,52.1,52.1,29.93,NNE,24,12.4,13.8,100,0.00,,SKC,0.05,VWS V14.01,2013-01-14 09:03:00,
2013-01-14 04:04:00,52.1,52.1,29.93,NE,38,9.8,12.5,100,0.00,,SKC,0.05,VWS V14.01,2013-01-14 09:04:00,
2013-01-14 04:07:00,52.0,52.0,29.93,NE,38,6.0,15.2,100,0.00,,SKC,0.05,VWS V14.01,2013-01-14 09:07:00,
2013-01-14 04:08:00,52.0,52.0,29.93,NNE,21,14.4,18.5,100,0.00,,SKC,0.05,VWS V14.01,2013-01-14 09:08:00,
2013-01-14 04:09:00,52.0,52.0,29.92,NE,34,8.5,12.2,100,0.00,,SKC,0.05,VWS V14.01,2013-01-14 09:09:00,
2013-01-14 04:12:00,52.0,52.0,29.93,NE,34,10.6,12.5,100,0.00,,SKC,0.05,VWS V14.01,2013-01-14 09:12:00,
2013-01-14 04:13:00,51.9,51.9,29.93,NE,38,14.3,19.0,100,0.00,,SKC,0.05,VWS V14.01,2013-01-14 09:13:00,
2013-01-14 04:14:00,51.9,51.9,29.93,NNE,25,13.6,15.0,100,0.01,,SKC,0.06,VWS V14.01,2013-01-14 09:14:00,
2013-01-14 04:17:00,51.9,51.9,29.93,NNE,14,7.6,12.6,100,0.01,,SKC,0.06,VWS V14.01,2013-01-14 09:17:00,
2013-01-14 04:18:00,51.9,51.9,29.93,ENE,62,13.1,17.5,100,0.01,,SKC,0.06,VWS V14.01,2013-01-14 09:18:00,
2013-01-14 04:19:00,51.8,51.8,29.93,NNE,15,4.8,11.6,100,0.01,,SKC,0.06,VWS V14.01,2013-01-14 09:19:00,
2013-01-14 04:22:00,51.8,51.8,29.93,North,6,9.6,11.6,100,0.01,,SKC,0.06,VWS V14.01,2013-01-14 09:22:00,
2013-01-14 04:23:00,51.8,51.8,29.93,NE,39,13.0,18.1,100,0.01,,SKC,0.06,VWS V14.01,2013-01-14 09:23:00,
2013-01-14 04:24:00,51.8,51.7,29.93,NE,39,15.7,15.7,100,0.01,,SKC,0.06,VWS V14.01,2013-01-14 09:24:00,
2013-01-14 04:27:00,51.8,51.8,29.92,NNE,22,7.9,10.9,100,0.01,,SKC,0.06,VWS V14.01,2013-01-14 09:27:00,
2013-01-14 04:29:00,51.8,51.8,29.92,NE,49,7.8,7.8,100,0.01,,SKC,0.06,VWS V14.01,2013-01-14 09:29:00,
2013-01-14 04:32:00,51.7,51.7,29.92,NNE,32,12.4,12.4,100,0.01,,SKC,0.06,VWS V14.01,2013-01-14 09:32:00,
2013-01-14 04:34:00,51.7,51.7,29.92,NNE,18,10.7,13.7,100,0.01,,SKC,0.06,VWS V14.01,2013-01-14 09:34:00,
2013-01-14 04:37:00,51.6,51.6,29.93,NNE,20,6.9,10.8,100,0.01,,SKC,0.06,VWS V14.01,2013-01-14 09:37:00,
2013-01-14 04:39:00,51.7,51.7,29.93,NE,52,7.4,13.9,100,0.01,,SKC,0.06,VWS V14.01,2013-01-14 09:39:00,
2013-01-14 04:42:00,51.7,51.7,29.92,NE,35,9.3,10.3,100,0.01,,SKC,0.06,VWS V14.01,2013-01-14 09:42:00,
2013-01-14 04:44:00,51.7,51.7,29.93,North,4,10.1,11.9,100,0.01,,SKC,0.06,VWS V14.01,2013-01-14 09:44:00,
2013-01-14 04:47:00,51.7,51.7,29.93,NE,46,7.5,10.3,100,0.01,,SKC,0.06,VWS V14.01,2013-01-14 09:47:00,
2013-01-14 04:49:00,51.7,51.6,29.93,NE,41,10.1,11.0,100,0.01,,SKC,0.06,VWS V14.01,2013-01-14 09:49:00,
2013-01-14 04:52:00,51.6,51.6,29.93,NE,42,8.3,10.9,100,0.01,,SKC,0.06,VWS V14.01,2013-01-14 09:52:00,
2013-01-14 04:54:00,51.4,51.4,29.93,NNE,21,9.6,14.4,100,0.01,,SKC,0.06,VWS V14.01,2013-01-14 09:54:00,
2013-01-14 04:55:00,51.4,51.4,29.93,East,84,14.4,14.4,100,0.01,,SKC,0.06,VWS V14.01,2013-01-14 09:55:00,
2013-01-14 04:57:00,51.4,51.5,29.93,NNE,22,9.4,13.8,100,0.01,,SKC,0.06,VWS V14.01,2013-01-14 09:57:00,
2013-01-14 04:59:00,51.4,51.4,29.93,NNE,32,8.5,8.8,100,0.01,,SKC,0.06,VWS V14.01,2013-01-14 09:59:00,
2013-01-14 05:00:00,51.4,51.4,29.93,NNE,22,16.5,20.7,100,0.01,,SKC,0.06,VWS V14.01,2013-01-14 10:00:00,
2013-01-14 05:02:00,51.4,51.4,29.92,NNE,25,11.9,11.9,100,0.01,,SKC,0.06,VWS V14.01,2013-01-14 10:02:00,
2013-01-14 05:04:00,51.3,51.3,29.92,NE,56,14.9,14.9,100,0.01,,SKC,0.06,VWS V14.01,2013-01-14 10:04:00,
2013-01-14 05:05:00,51.3,51.3,29.92,ENE,72,12.4,14.5,100,0.01,,SKC,0.06,VWS V14.01,2013-01-14 10:05:00,
2013-01-14 05:07:00,51.3,51.2,29.92,NNE,30,9.3,14.0,100,0.01,,SKC,0.06,VWS V14.01,2013-01-14 10:07:00,
2013-01-14 05:09:00,51.2,51.2,29.92,North,8,11.7,13.7,100,0.01,,SKC,0.06,VWS V14.01,2013-01-14 10:09:00,
2013-01-14 05:10:00,51.2,51.2,29.92,NNE,22,14.7,14.7,100,0.01,,SKC,0.06,VWS V14.01,2013-01-14 10:10:00,
2013-01-14 05:12:00,51.1,51.1,29.92,ENE,59,4.3,10.7,100,0.01,,SKC,0.06,VWS V14.01,2013-01-14 10:12:00,
2013-01-14 05:14:00,51.1,51.1,29.92,NNE,17,6.5,13.9,100,0.00,,SKC,0.06,VWS V14.01,2013-01-14 10:14:00,
2013-01-14 05:15:00,51.1,51.1,29.92,NE,45,8.2,9.4,100,0.00,,SKC,0.06,VWS V14.01,2013-01-14 10:15:00,
2013-01-14 05:18:00,51.0,51.0,29.92,NE,49,9.3,9.3,100,0.00,,SKC,0.06,VWS V14.01,2013-01-14 10:18:00,
2013-01-14 05:19:00,51.0,51.0,29.92,NE,44,9.5,14.0,100,0.00,,SKC,0.06,VWS V14.01,2013-01-14 10:19:00,
2013-01-14 05:20:00,51.0,51.0,29.92,ENE,73,8.3,9.3,100,0.00,,SKC,0.06,VWS V14.01,2013-01-14 10:20:00,
2013-01-14 05:23:00,51.0,51.0,29.92,NE,48,7.6,14.9,100,0.00,,SKC,0.06,VWS V14.01,2013-01-14 10:23:00,
2013-01-14 05:24:00,51.0,51.0,29.92,NE,35,12.9,14.3,100,0.00,,SKC,0.06,VWS V14.01,2013-01-14 10:24:00,
2013-01-14 05:25:00,51.0,51.0,29.92,North,8,10.9,16.1,100,0.00,,SKC,0.06,VWS V14.01,2013-01-14 10:25:00,
2013-01-14 05:28:00,51.0,51.0,29.92,NE,56,7.1,14.0,100,0.00,,SKC,0.06,VWS V14.01,2013-01-14 10:28:00,
2013-01-14 05:29:00,51.0,51.0,29.92,ENE,60,6.0,7.6,100,0.00,,SKC,0.06,VWS V14.01,2013-01-14 10:29:00,
2013-01-14 05:30:00,50.9,50.9,29.92,NNE,27,6.3,9.7,100,0.00,,SKC,0.06,VWS V14.01,2013-01-14 10:30:00,
2013-01-14 05:33:00,50.9,50.9,29.92,NNE,17,10.7,11.5,100,0.00,,SKC,0.06,VWS V14.01,2013-01-14 10:33:00,
2013-01-14 05:34:00,50.9,50.9,29.92,NE,37,11.2,19.0,100,0.00,,SKC,0.06,VWS V14.01,2013-01-14 10:34:00,
2013-01-14 05:35:00,50.9,50.9,29.92,NE,38,9.8,12.0,100,0.00,,SKC,0.06,VWS V14.01,2013-01-14 10:35:00,
2013-01-14 05:38:00,50.8,50.8,29.92,NNE,31,9.3,9.6,100,0.00,,SKC,0.06,VWS V14.01,2013-01-14 10:38:00,
2013-01-14 05:39:00,50.8,50.8,29.92,NE,45,8.6,11.3,100,0.00,,SKC,0.06,VWS V14.01,2013-01-14 10:39:00,
2013-01-14 05:40:00,50.9,50.9,29.92,NNE,31,7.2,15.0,100,0.00,,SKC,0.06,VWS V14.01,2013-01-14 10:40:00,
2013-01-14 05:43:00,50.9,50.9,29.92,NE,45,2.9,10.5,100,0.00,,SKC,0.06,VWS V14.01,2013-01-14 10:43:00,
2013-01-14 05:45:00,50.9,50.9,29.92,NNE,13,9.9,11.2,100,0.00,,SKC,0.06,VWS V14.01,2013-01-14 10:45:00,
2013-01-14 05:46:00,50.9,50.9,29.92,ENE,63,11.5,11.5,100,0.00,,SKC,0.06,VWS V14.01,2013-01-14 10:46:00,
2013-01-14 05:48:00,50.8,50.8,29.92,NE,44,7.8,9.1,100,0.00,,SKC,0.06,VWS V14.01,2013-01-14 10:48:00,
2013-01-14 05:50:00,50.8,50.8,29.92,ENE,73,4.2,12.9,100,0.00,,SKC,0.06,VWS V14.01,2013-01-14 10:50:00,
2013-01-14 05:51:00,50.8,50.8,29.92,NE,53,10.6,14.3,100,0.00,,SKC,0.06,VWS V14.01,2013-01-14 10:51:00,
2013-01-14 05:53:00,50.8,50.8,29.92,ESE,105,6.8,8.1,100,0.00,,SKC,0.06,VWS V14.01,2013-01-14 10:53:00,
2013-01-14 05:55:00,50.8,50.8,29.92,NE,45,8.3,16.5,100,0.00,,SKC,0.06,VWS V14.01,2013-01-14 10:55:00,
2013-01-14 05:56:00,50.7,50.7,29.92,NNE,31,6.8,13.0,100,0.00,,SKC,0.06,VWS V14.01,2013-01-14 10:56:00,
2013-01-14 05:58:00,50.7,50.7,29.92,ENE,77,11.9,16.0,100,0.00,,SKC,0.06,VWS V14.01,2013-01-14 10:58:00,
2013-01-14 06:00:00,50.7,50.7,29.92,ENE,72,8.4,15.8,100,0.00,,SKC,0.06,VWS V14.01,2013-01-14 11:00:00,
2013-01-14 06:01:00,50.7,50.7,29.92,NE,44,8.7,16.7,100,0.00,,SKC,0.06,VWS V14.01,2013-01-14 11:01:00,
2013-01-14 06:04:00,50.7,50.7,29.92,NE,49,6.9,16.2,100,0.00,,SKC,0.06,VWS V14.01,2013-01-14 11:04:00,
2013-01-14 06:05:00,50.7,50.7,29.91,NE,53,9.8,9.8,100,0.00,,SKC,0.06,VWS V14.01,2013-01-14 11:05:00,
2013-01-14 06:06:00,50.7,50.7,29.92,NE,49,8.2,9.8,100,0.00,,SKC,0.06,VWS V14.01,2013-01-14 11:06:00,
2013-01-14 06:09:00,50.7,50.7,29.91,NNE,15,7.6,8.9,100,0.00,,SKC,0.06,VWS V14.01,2013-01-14 11:09:00,
2013-01-14 06:10:00,50.7,50.7,29.92,NE,44,7.7,7.7,100,0.00,,SKC,0.06,VWS V14.01,2013-01-14 11:10:00,
2013-01-14 06:11:00,50.7,50.7,29.92,NE,34,8.0,8.1,100,0.00,,SKC,0.06,VWS V14.01,2013-01-14 11:11:00,
2013-01-14 06:14:00,50.7,50.7,29.92,ENE,68,4.0,10.8,100,0.00,,SKC,0.06,VWS V14.01,2013-01-14 11:14:00,
2013-01-14 06:15:00,50.8,50.8,29.92,NNE,13,11.6,13.0,100,0.00,,SKC,0.06,VWS V14.01,2013-01-14 11:15:00,
2013-01-14 06:16:00,50.8,50.8,29.92,ENE,68,10.5,13.0,100,0.00,,SKC,0.06,VWS V14.01,2013-01-14 11:16:00,
2013-01-14 06:19:00,50.8,50.7,29.92,NNE,13,11.1,15.7,100,0.00,,SKC,0.06,VWS V14.01,2013-01-14 11:19:00,
2013-01-14 06:20:00,50.8,50.8,29.93,North,4,12.4,12.4,100,0.00,,SKC,0.06,VWS V14.01,2013-01-14 11:20:00,
2013-01-14 06:21:00,50.7,50.7,29.93,NNE,20,13.5,13.5,100,0.00,,SKC,0.06,VWS V14.01,2013-01-14 11:21:00,
2013-01-14 06:24:00,50.8,50.8,29.93,NE,49,5.0,5.2,100,0.00,,SKC,0.06,VWS V14.01,2013-01-14 11:24:00,
2013-01-14 06:25:00,50.8,50.8,29.93,NE,34,6.0,7.7,100,0.00,,SKC,0.06,VWS V14.01,2013-01-14 11:25:00,
2013-01-14 06:26:00,50.8,50.8,29.93,NNE,27,16.8,16.8,100,0.00,,SKC,0.06,VWS V14.01,2013-01-14 11:26:00,
2013-01-14 06:29:00,50.7,50.7,29.93,NNE,15,9.4,10.2,100,0.00,,SKC,0.06,VWS V14.01,2013-01-14 11:29:00,
2013-01-14 06:30:00,50.8,50.8,29.93,ENE,59,6.7,11.4,100,0.00,,SKC,0.06,VWS V14.01,2013-01-14 11:30:00,
2013-01-14 06:31:00,50.8,50.8,29.93,NE,41,8.0,12.1,100,0.00,,SKC,0.06,VWS V14.01,2013-01-14 11:31:00,
2013-01-14 06:34:00,50.7,50.7,29.93,East,89,6.3,6.6,100,0.00,,SKC,0.06,VWS V14.01,2013-01-14 11:34:00,
2013-01-14 06:35:00,50.7,50.7,29.93,NNE,32,8.5,9.8,100,0.00,,SKC,0.06,VWS V14.01,2013-01-14 11:35:00,
2013-01-14 06:36:00,50.8,50.8,29.93,NE,53,5.6,9.6,100,0.00,,SKC,0.06,VWS V14.01,2013-01-14 11:36:00,
2013-01-14 06:39:00,50.7,50.7,29.93,NE,34,8.4,10.2,100,0.00,,SKC,0.06,VWS V14.01,2013-01-14 11:39:00,
2013-01-14 06:40:00,50.8,50.8,29.93,NE,53,5.3,8.2,100,0.00,,SKC,0.06,VWS V14.01,2013-01-14 11:40:00,
2013-01-14 06:41:00,50.7,50.7,29.93,NE,53,2.1,8.0,100,0.00,,SKC,0.06,VWS V14.01,2013-01-14 11:41:00,
2013-01-14 06:44:00,50.8,50.8,29.93,NE,56,4.3,4.8,100,0.00,,SKC,0.06,VWS V14.01,2013-01-14 11:44:00,
2013-01-14 06:46:00,50.8,50.8,29.93,East,82,9.3,9.6,100,0.00,,SKC,0.06,VWS V14.01,2013-01-14 11:46:00,
2013-01-14 06:49:00,50.8,50.8,29.93,ENE,65,8.7,8.9,100,0.00,,SKC,0.06,VWS V14.01,2013-01-14 11:49:00,
2013-01-14 06:51:00,50.8,50.8,29.93,East,90,4.1,7.5,100,0.00,,SKC,0.06,VWS V14.01,2013-01-14 11:51:00,
2013-01-14 06:52:00,50.8,50.8,29.93,ENE,65,3.3,4.5,100,0.00,,SKC,0.06,VWS V14.01,2013-01-14 11:52:00,
2013-01-14 06:54:00,50.8,50.8,29.93,NNE,31,4.8,6.2,100,0.00,,SKC,0.06,VWS V14.01,2013-01-14 11:54:00,
2013-01-14 06:56:00,50.8,50.8,29.93,ENE,72,7.3,9.6,100,0.00,,SKC,0.06,VWS V14.01,2013-01-14 11:56:00,
2013-01-14 06:57:00,50.8,50.8,29.93,East,96,5.3,5.3,100,0.00,,SKC,0.06,VWS V14.01,2013-01-14 11:57:00,
2013-01-14 06:59:00,50.8,50.8,29.94,ENE,72,3.9,6.3,100,0.00,,SKC,0.06,VWS V14.01,2013-01-14 11:59:00,
2013-01-14 07:01:00,50.8,50.8,29.94,ENE,70,5.9,6.5,100,0.00,,SKC,0.06,VWS V14.01,2013-01-14 12:01:00,
2013-01-14 07:02:00,50.8,50.8,29.93,ENE,73,4.2,4.6,100,0.00,,SKC,0.06,VWS V14.01,2013-01-14 12:02:00,
2013-01-14 07:04:00,50.8,50.8,29.94,NE,46,3.7,7.5,100,0.00,,SKC,0.06,VWS V14.01,2013-01-14 12:04:00,
2013-01-14 07:06:00,50.8,50.8,29.94,NNE,28,6.8,6.8,100,0.00,,SKC,0.06,VWS V14.01,2013-01-14 12:06:00,
2013-01-14 07:07:00,50.8,50.8,29.93,NNE,28,6.0,7.3,100,0.00,,SKC,0.06,VWS V14.01,2013-01-14 12:07:00,
2013-01-14 07:10:00,50.7,50.7,29.94,ENE,60,5.5,9.4,100,0.00,,SKC,0.06,VWS V14.01,2013-01-14 12:10:00,
2013-01-14 07:11:00,50.6,50.6,29.94,NNE,30,11.4,11.4,100,0.00,,SKC,0.06,VWS V14.01,2013-01-14 12:11:00,
2013-01-14 07:12:00,50.6,50.6,29.94,NE,48,8.6,10.9,100,0.00,,SKC,0.06,VWS V14.01,2013-01-14 12:12:00,
2013-01-14 07:15:00,50.4,50.4,29.94,NNE,14,7.6,10.4,100,0.00,,SKC,0.06,VWS V14.01,2013-01-14 12:15:00,
2013-01-14 07:16:00,50.4,50.4,29.94,ENE,65,7.3,9.9,100,0.00,,SKC,0.06,VWS V14.01,2013-01-14 12:16:00,
2013-01-14 07:17:00,50.3,50.3,29.95,ENE,59,6.5,9.4,100,0.00,,SKC,0.06,VWS V14.01,2013-01-14 12:17:00,
2013-01-14 07:20:00,50.2,50.2,29.95,NNE,14,8.4,12.5,100,0.00,,SKC,0.06,VWS V14.01,2013-01-14 12:20:00,
2013-01-14 07:21:00,50.1,50.1,29.95,NE,45,3.4,6.1,100,0.00,,SKC,0.06,VWS V14.01,2013-01-14 12:21:00,
2013-01-14 07:22:00,50.2,50.2,29.95,East,91,7.5,8.5,100,0.00,,SKC,0.06,VWS V14.01,2013-01-14 12:22:00,
2013-01-14 07:25:00,50.1,50.1,29.95,NE,34,6.2,7.1,100,0.00,,SKC,0.06,VWS V14.01,2013-01-14 12:25:00,
2013-01-14 07:26:00,50.1,50.1,29.95,ENE,59,8.6,12.2,100,0.00,,SKC,0.06,VWS V14.01,2013-01-14 12:26:00,
2013-01-14 07:27:00,50.0,50.0,29.95,NE,52,8.0,12.2,100,0.00,,SKC,0.06,VWS V14.01,2013-01-14 12:27:00,
2013-01-14 07:30:00,50.0,50.0,29.95,East,80,5.8,9.5,100,0.00,,SKC,0.06,VWS V14.01,2013-01-14 12:30:00,
2013-01-14 07:31:00,49.9,49.9,29.95,ENE,62,4.2,6.8,100,0.00,,SKC,0.06,VWS V14.01,2013-01-14 12:31:00,
2013-01-14 07:32:00,49.9,49.9,29.95,NE,49,8.0,8.0,100,0.00,,SKC,0.06,VWS V14.01,2013-01-14 12:32:00,
2013-01-14 07:36:00,49.9,49.9,29.95,NE,56,3.9,3.9,100,0.00,,SKC,0.06,VWS V14.01,2013-01-14 12:36:00,
2013-01-14 07:37:00,49.9,49.9,29.95,NE,49,9.4,10.7,100,0.00,,SKC,0.06,VWS V14.01,2013-01-14 12:37:00,
2013-01-14 07:41:00,49.8,49.8,29.96,East,83,8.5,8.5,100,0.00,,SKC,0.06,VWS V14.01,2013-01-14 12:41:00,
2013-01-14 07:42:00,49.8,49.8,29.96,NE,38,6.2,10.4,100,0.00,,SKC,0.06,VWS V14.01,2013-01-14 12:42:00,
2013-01-14 07:46:00,49.6,49.6,29.95,NE,38,7.6,9.8,100,0.00,,SKC,0.06,VWS V14.01,2013-01-14 12:46:00,
2013-01-14 07:47:00,49.6,49.6,29.95,ENE,68,6.8,9.4,100,0.00,,SKC,0.06,VWS V14.01,2013-01-14 12:47:00,
2013-01-14 07:51:00,49.6,49.6,29.95,NE,41,4.9,8.3,100,0.00,,SKC,0.06,VWS V14.01,2013-01-14 12:51:00,
2013-01-14 07:52:00,49.6,49.6,29.95,NE,35,6.6,8.3,100,0.00,,SKC,0.06,VWS V14.01,2013-01-14 12:52:00,
2013-01-14 07:53:00,49.6,49.6,29.96,NE,45,6.0,7.5,100,0.00,,SKC,0.06,VWS V14.01,2013-01-14 12:53:00,
2013-01-14 07:57:00,49.5,49.5,29.96,NE,52,5.1,6.6,100,0.00,,SKC,0.06,VWS V14.01,2013-01-14 12:57:00,
2013-01-14 07:58:00,49.5,49.5,29.96,NNE,31,6.7,8.8,100,0.00,,SKC,0.06,VWS V14.01,2013-01-14 12:58:00,
2013-01-14 08:02:00,49.5,49.4,29.95,NNE,27,8.0,10.2,100,0.00,,SKC,0.06,VWS V14.01,2013-01-14 13:02:00,
2013-01-14 08:03:00,49.4,49.4,29.96,East,83,3.5,5.5,100,0.00,,SKC,0.06,VWS V14.01,2013-01-14 13:03:00,
2013-01-14 08:07:00,49.5,49.5,29.95,ENE,72,2.1,2.4,100,0.00,,SKC,0.06,VWS V14.01,2013-01-14 13:07:00,
2013-01-14 08:08:00,49.5,49.5,29.95,ENE,60,9.4,9.4,100,0.00,,SKC,0.06,VWS V14.01,2013-01-14 13:08:00,
2013-01-14 08:12:00,49.6,49.6,29.95,ENE,70,3.7,3.7,100,0.00,,SKC,0.06,VWS V14.01,2013-01-14 13:12:00,
2013-01-14 08:13:00,49.6,49.6,29.95,NE,45,8.8,12.0,100,0.00,,SKC,0.06,VWS V14.01,2013-01-14 13:13:00,
2013-01-14 08:17:00,49.6,49.6,29.96,ENE,69,4.7,7.4,100,0.00,,SKC,0.06,VWS V14.01,2013-01-14 13:17:00,
2013-01-14 08:18:00,49.5,49.5,29.96,NE,51,6.2,10.4,100,0.00,,SKC,0.06,VWS V14.01,2013-01-14 13:18:00,
2013-01-14 08:22:00,49.5,49.5,29.96,ENE,60,10.9,10.9,100,0.00,,SKC,0.06,VWS V14.01,2013-01-14 13:22:00,
2013-01-14 08:23:00,49.4,49.4,29.96,ENE,62,9.5,9.5,100,0.00,,SKC,0.06,VWS V14.01,2013-01-14 13:23:00,
2013-01-14 08:27:00,49.5,49.5,29.96,NE,56,5.8,5.8,100,0.00,,SKC,0.06,VWS V14.01,2013-01-14 13:27:00,
2013-01-14 08:28:00,49.4,49.4,29.96,NNE,15,6.0,8.9,100,0.00,,SKC,0.06,VWS V14.01,2013-01-14 13:28:00,
2013-01-14 08:32:00,49.4,49.4,29.96,East,91,4.3,8.0,100,0.00,,SKC,0.06,VWS V14.01,2013-01-14 13:32:00,
2013-01-14 08:33:00,49.4,49.4,29.96,ENE,60,8.8,8.9,100,0.00,,SKC,0.06,VWS V14.01,2013-01-14 13:33:00,
2013-01-14 08:37:00,49.4,49.4,29.97,NE,56,7.9,12.4,100,0.00,,SKC,0.06,VWS V14.01,2013-01-14 13:37:00,
2013-01-14 08:38:00,49.3,49.4,29.97,ENE,60,6.8,8.1,100,0.00,,SKC,0.06,VWS V14.01,2013-01-14 13:38:00,
2013-01-14 08:42:00,49.4,49.4,29.97,NNE,32,7.5,8.9,100,0.00,,SKC,0.06,VWS V14.01,2013-01-14 13:42:00,
2013-01-14 08:43:00,49.4,49.4,29.97,NE,35,11.9,11.9,100,0.00,,SKC,0.06,VWS V14.01,2013-01-14 13:43:00,
2013-01-14 08:47:00,49.4,49.4,29.97,NE,39,10.1,12.6,100,0.00,,SKC,0.06,VWS V14.01,2013-01-14 13:47:00,
2013-01-14 08:48:00,49.4,49.4,29.97,NE,51,7.5,10.3,100,0.00,,SKC,0.06,VWS V14.01,2013-01-14 13:48:00,
2013-01-14 08:52:00,49.4,49.4,29.97,NE,35,7.3,10.1,100,0.00,,SKC,0.06,VWS V14.01,2013-01-14 13:52:00,
2013-01-14 08:53:00,49.4,49.4,29.97,NNE,21,6.1,7.6,100,0.00,,SKC,0.06,VWS V14.01,2013-01-14 13:53:00,
2013-01-14 08:57:00,49.3,49.3,29.97,NE,46,7.5,9.7,100,0.00,,SKC,0.06,VWS V14.01,2013-01-14 13:57:00,
2013-01-14 08:58:00,49.4,49.3,29.97,ENE,58,5.2,8.8,100,0.00,,SKC,0.06,VWS V14.01,2013-01-14 13:58:00,
2013-01-14 09:03:00,49.2,49.2,29.97,NE,35,7.9,7.9,100,0.00,,SKC,0.06,VWS V14.01,2013-01-14 14:03:00,
2013-01-14 09:08:00,49.3,49.3,29.97,NE,56,3.6,4.3,100,0.00,,SKC,0.06,VWS V14.01,2013-01-14 14:08:00,
2013-01-14 09:13:00,49.4,49.4,29.97,NE,45,7.8,7.8,100,0.00,,SKC,0.06,VWS V14.01,2013-01-14 14:13:00,
2013-01-14 09:18:00,49.4,49.4,29.98,ENE,58,5.2,7.4,100,0.00,,SKC,0.06,VWS V14.01,2013-01-14 14:18:00,
2013-01-14 09:19:00,49.3,49.3,29.97,ENE,60,7.6,7.6,100,0.00,,SKC,0.06,VWS V14.01,2013-01-14 14:19:00,
2013-01-14 09:23:00,49.4,49.4,29.97,North,6,5.0,8.6,100,0.00,,SKC,0.06,VWS V14.01,2013-01-14 14:23:00,
2013-01-14 09:24:00,49.4,49.4,29.97,NNE,27,3.7,5.2,100,0.00,,SKC,0.06,VWS V14.01,2013-01-14 14:24:00,
2013-01-14 09:28:00,49.5,49.5,29.98,ENE,59,6.3,6.3,100,0.00,,SKC,0.06,VWS V14.01,2013-01-14 14:28:00,
2013-01-14 09:29:00,49.4,49.4,29.98,ENE,60,4.2,4.2,100,0.00,,SKC,0.06,VWS V14.01,2013-01-14 14:29:00,
2013-01-14 09:33:00,49.5,49.5,29.98,NE,51,3.7,7.5,100,0.00,,SKC,0.06,VWS V14.01,2013-01-14 14:33:00,
2013-01-14 09:34:00,49.4,49.4,29.98,ENE,72,6.5,6.5,100,0.00,,SKC,0.06,VWS V14.01,2013-01-14 14:34:00,
2013-01-14 09:35:00,49.4,49.4,29.98,ENE,73,6.3,6.3,100,0.00,,SKC,0.06,VWS V14.01,2013-01-14 14:35:00,
2013-01-14 09:38:00,49.4,49.4,29.98,NNE,30,6.5,8.1,100,0.00,,SKC,0.06,VWS V14.01,2013-01-14 14:38:00,
2013-01-14 09:39:00,49.4,49.4,29.98,ENE,68,5.9,5.9,100,0.00,,SKC,0.06,VWS V14.01,2013-01-14 14:39:00,
2013-01-14 09:40:00,49.4,49.4,29.98,NNE,14,7.0,12.2,100,0.00,,SKC,0.06,VWS V14.01,2013-01-14 14:40:00,
2013-01-14 09:43:00,49.4,49.4,29.98,NNE,31,3.7,7.5,100,0.00,,SKC,0.06,VWS V14.01,2013-01-14 14:43:00,
2013-01-14 09:44:00,49.4,49.4,29.98,NE,49,4.2,7.5,100,0.00,,SKC,0.06,VWS V14.01,2013-01-14 14:44:00,
2013-01-14 09:45:00,49.3,49.3,29.98,NNE,27,6.8,9.7,100,0.00,,SKC,0.06,VWS V14.01,2013-01-14 14:45:00,
2013-01-14 09:48:00,49.3,49.3,29.97,ENE,59,7.8,7.8,100,0.00,,SKC,0.06,VWS V14.01,2013-01-14 14:48:00,
2013-01-14 09:49:00,49.3,49.3,29.97,NE,38,6.8,9.9,100,0.00,,SKC,0.06,VWS V14.01,2013-01-14 14:49:00,
2013-01-14 09:50:00,49.3,49.3,29.98,East,83,5.7,8.2,100,0.00,,SKC,0.06,VWS V14.01,2013-01-14 14:50:00,
2013-01-14 09:54:00,49.3,49.3,29.98,NE,52,9.6,10.4,100,0.00,,SKC,0.06,VWS V14.01,2013-01-14 14:54:00,
2013-01-14 09:55:00,49.3,49.3,29.98,NE,49,4.8,9.8,100,0.00,,SKC,0.06,VWS V14.01,2013-01-14 14:55:00,
2013-01-14 09:59:00,49.3,49.3,29.98,ENE,66,3.2,4.0,100,0.00,,SKC,0.06,VWS V14.01,2013-01-14 14:59:00,
2013-01-14 10:00:00,49.4,49.4,29.98,NE,48,4.8,8.9,100,0.00,,SKC,0.06,VWS V14.01,2013-01-14 15:00:00,
2013-01-14 10:04:00,49.5,49.5,29.98,ENE,65,8.3,8.3,100,0.00,,SKC,0.06,VWS V14.01,2013-01-14 15:04:00,
2013-01-14 10:05:00,49.4,49.4,29.98,ENE,58,8.8,9.6,100,0.00,,SKC,0.06,VWS V14.01,2013-01-14 15:05:00,
2013-01-14 10:09:00,49.5,49.5,29.99,ENE,75,6.8,6.8,100,0.00,,SKC,0.06,VWS V14.01,2013-01-14 15:09:00,
2013-01-14 10:10:00,49.5,49.5,29.99,NNE,27,5.0,7.1,100,0.00,,SKC,0.06,VWS V14.01,2013-01-14 15:10:00,
2013-01-14 10:14:00,49.6,49.6,29.99,NE,51,3.5,6.0,100,0.00,,SKC,0.06,VWS V14.01,2013-01-14 15:14:00,
2013-01-14 10:15:00,49.6,49.6,29.99,East,93,4.4,4.4,100,0.00,,SKC,0.06,VWS V14.01,2013-01-14 15:15:00,
2013-01-14 10:19:00,49.7,49.7,29.99,NE,53,1.9,3.0,100,0.00,,SKC,0.06,VWS V14.01,2013-01-14 15:19:00,
2013-01-14 10:20:00,49.8,49.8,29.99,NE,49,2.2,3.0,100,0.00,,SKC,0.06,VWS V14.01,2013-01-14 15:20:00,
2013-01-14 10:24:00,49.9,49.9,29.98,ENE,76,3.6,5.0,100,0.00,,SKC,0.06,VWS V14.01,2013-01-14 15:24:00,
2013-01-14 10:25:00,49.9,49.9,29.98,East,82,3.6,3.6,100,0.00,,SKC,0.06,VWS V14.01,2013-01-14 15:25:00,
2013-01-14 10:29:00,50.0,50.0,29.97,NE,39,7.7,7.9,100,0.00,,SKC,0.06,VWS V14.01,2013-01-14 15:29:00,
2013-01-14 10:30:00,50.0,50.0,29.98,ENE,73,8.5,9.5,100,0.00,,SKC,0.06,VWS V14.01,2013-01-14 15:30:00,
2013-01-14 10:31:00,50.0,49.9,29.98,ENE,59,4.0,9.5,100,0.00,,SKC,0.06,VWS V14.01,2013-01-14 15:31:00,
2013-01-14 10:34:00,50.0,50.0,29.98,ENE,58,4.0,6.8,100,0.00,,SKC,0.06,VWS V14.01,2013-01-14 15:34:00,
2013-01-14 10:35:00,50.0,50.0,29.98,ENE,60,2.5,4.8,100,0.00,,SKC,0.06,VWS V14.01,2013-01-14 15:35:00,
2013-01-14 10:36:00,50.0,50.0,29.98,NE,56,2.3,2.5,100,0.00,,SKC,0.06,VWS V14.01,2013-01-14 15:36:00,
2013-01-14 10:39:00,50.1,50.2,29.99,NE,52,6.5,7.6,100,0.00,,SKC,0.06,VWS V14.01,2013-01-14 15:39:00,
2013-01-14 10:40:00,50.2,50.2,29.99,ENE,65,6.7,8.0,100,0.00,,SKC,0.06,VWS V14.01,2013-01-14 15:40:00,
2013-01-14 10:41:00,50.2,50.2,29.99,NE,41,8.2,8.7,100,0.00,,SKC,0.06,VWS V14.01,2013-01-14 15:41:00,
2013-01-14 10:44:00,50.2,50.2,29.98,ENE,73,4.2,6.7,100,0.00,,SKC,0.06,VWS V14.01,2013-01-14 15:44:00,
2013-01-14 10:45:00,50.2,50.2,29.98,NE,48,4.2,5.5,100,0.00,,SKC,0.06,VWS V14.01,2013-01-14 15:45:00,
2013-01-14 10:46:00,50.3,50.3,29.98,NE,55,8.0,9.2,100,0.00,,SKC,0.06,VWS V14.01,2013-01-14 15:46:00,
2013-01-14 10:49:00,50.3,50.3,29.98,NE,51,4.9,10.1,100,0.00,,SKC,0.06,VWS V14.01,2013-01-14 15:49:00,
2013-01-14 10:50:00,50.3,50.3,29.98,NE,48,2.4,7.3,100,0.00,,SKC,0.06,VWS V14.01,2013-01-14 15:50:00,
2013-01-14 10:51:00,50.3,50.3,29.98,NE,55,6.1,7.0,100,0.00,,SKC,0.06,VWS V14.01,2013-01-14 15:51:00,
2013-01-14 10:54:00,50.5,50.5,29.98,East,96,4.3,5.8,100,0.00,,SKC,0.06,VWS V14.01,2013-01-14 15:54:00,
2013-01-14 10:55:00,50.6,50.6,29.98,ENE,76,3.2,6.6,100,0.00,,SKC,0.06,VWS V14.01,2013-01-14 15:55:00,
2013-01-14 10:56:00,50.6,50.6,29.98,ENE,58,1.8,4.2,100,0.00,,SKC,0.06,VWS V14.01,2013-01-14 15:56:00,
2013-01-14 11:00:00,50.8,50.8,29.98,ENE,63,7.0,8.5,100,0.00,,SKC,0.06,VWS V14.01,2013-01-14 16:00:00,
2013-01-14 11:01:00,50.8,50.8,29.97,ENE,66,4.9,6.1,100,0.00,,SKC,0.06,VWS V14.01,2013-01-14 16:01:00,
2013-01-14 11:05:00,51.0,51.0,29.97,ENE,66,5.7,5.7,100,0.00,,SKC,0.06,VWS V14.01,2013-01-14 16:05:00,
2013-01-14 11:06:00,51.0,51.0,29.97,ENE,60,3.8,6.3,100,0.00,,SKC,0.06,VWS V14.01,2013-01-14 16:06:00,
2013-01-14 11:10:00,51.2,51.2,29.97,ENE,66,1.3,3.2,100,0.00,,SKC,0.06,VWS V14.01,2013-01-14 16:10:00,
2013-01-14 11:11:00,51.2,51.2,29.97,East,79,3.5,6.0,100,0.00,,SKC,0.06,VWS V14.01,2013-01-14 16:11:00,
2013-01-14 11:15:00,51.3,51.3,29.97,ENE,66,4.0,4.0,100,0.00,,SKC,0.06,VWS V14.01,2013-01-14 16:15:00,
2013-01-14 11:16:00,51.3,51.3,29.97,ENE,75,4.5,8.6,100,0.00,,SKC,0.06,VWS V14.01,2013-01-14 16:16:00,
2013-01-14 11:20:00,51.3,51.3,29.97,NE,46,7.3,8.9,100,0.00,,SKC,0.06,VWS V14.01,2013-01-14 16:20:00,
2013-01-14 11:21:00,51.3,51.3,29.97,NE,48,3.6,8.4,100,0.00,,SKC,0.06,VWS V14.01,2013-01-14 16:21:00,
2013-01-14 11:25:00,51.3,51.3,29.97,ENE,69,3.5,6.2,100,0.00,,SKC,0.06,VWS V14.01,2013-01-14 16:25:00,
2013-01-14 11:27:00,51.4,51.4,29.96,NNE,32,5.0,5.1,100,0.00,,SKC,0.06,VWS V14.01,2013-01-14 16:27:00,
2013-01-14 11:30:00,51.4,51.4,29.97,NE,55,4.9,6.3,100,0.00,,SKC,0.06,VWS V14.01,2013-01-14 16:30:00,
2013-01-14 11:31:00,51.4,51.4,29.97,ENE,58,4.4,6.3,100,0.00,,SKC,0.06,VWS V14.01,2013-01-14 16:31:00,
2013-01-14 11:32:00,51.4,51.4,29.97,NE,45,7.4,8.8,100,0.00,,SKC,0.06,VWS V14.01,2013-01-14 16:32:00,
2013-01-14 11:35:00,51.3,51.3,29.96,ENE,60,5.2,5.2,100,0.00,,SKC,0.06,VWS V14.01,2013-01-14 16:35:00,
2013-01-14 11:36:00,51.4,51.4,29.96,ENE,65,5.8,5.8,100,0.00,,SKC,0.06,VWS V14.01,2013-01-14 16:36:00,
2013-01-14 11:37:00,51.3,51.3,29.97,NNE,27,5.4,6.9,100,0.00,,SKC,0.06,VWS V14.01,2013-01-14 16:37:00,
2013-01-14 11:40:00,51.4,51.4,29.96,NNE,30,5.4,6.9,100,0.00,,SKC,0.06,VWS V14.01,2013-01-14 16:40:00,
2013-01-14 11:41:00,51.4,51.4,29.96,NE,35,8.3,8.8,100,0.00,,SKC,0.06,VWS V14.01,2013-01-14 16:41:00,
2013-01-14 11:42:00,51.3,51.3,29.96,ENE,58,6.7,9.3,100,0.00,,SKC,0.06,VWS V14.01,2013-01-14 16:42:00,
2013-01-14 11:46:00,51.2,51.2,29.96,NNE,31,4.9,10.7,100,0.00,,SKC,0.06,VWS V14.01,2013-01-14 16:46:00,
2013-01-14 11:48:00,51.1,51.1,29.96,NE,42,4.7,9.3,100,0.00,,SKC,0.06,VWS V14.01,2013-01-14 16:48:00,
2013-01-14 11:51:00,51.2,51.2,29.96,NNE,32,8.8,8.8,100,0.00,,SKC,0.06,VWS V14.01,2013-01-14 16:51:00,
2013-01-14 11:53:00,51.2,51.2,29.96,NNE,21,8.1,8.9,100,0.00,,SKC,0.06,VWS V14.01,2013-01-14 16:53:00,
2013-01-14 11:56:00,51.2,51.2,29.96,NNE,31,7.5,8.6,100,0.00,,SKC,0.06,VWS V14.01,2013-01-14 16:56:00,
2013-01-14 11:58:00,51.3,51.3,29.96,NE,39,8.0,8.2,100,0.00,,SKC,0.06,VWS V14.01,2013-01-14 16:58:00,
2013-01-14 12:01:00,51.4,51.4,29.96,NNE,17,7.0,8.5,100,0.00,,SKC,0.06,VWS V14.01,2013-01-14 17:01:00,
2013-01-14 12:03:00,51.4,51.4,29.96,ENE,72,1.8,4.8,100,0.00,,SKC,0.06,VWS V14.01,2013-01-14 17:03:00,
2013-01-14 12:06:00,51.4,51.4,29.96,NE,39,6.2,10.3,100,0.00,,SKC,0.06,VWS V14.01,2013-01-14 17:06:00,
2013-01-14 12:08:00,51.3,51.3,29.96,North,7,8.3,9.4,100,0.00,,SKC,0.06,VWS V14.01,2013-01-14 17:08:00,
2013-01-14 12:11:00,51.3,51.3,29.96,NNE,20,8.0,8.0,100,0.00,,SKC,0.06,VWS V14.01,2013-01-14 17:11:00,
2013-01-14 12:13:00,51.4,51.4,29.95,NE,52,3.6,5.2,100,0.00,,SKC,0.06,VWS V14.01,2013-01-14 17:13:00,
2013-01-14 12:16:00,51.3,51.3,29.95,NNE,15,7.3,8.6,100,0.00,,SKC,0.06,VWS V14.01,2013-01-14 17:16:00,
2013-01-14 12:18:00,51.3,51.3,29.95,North,3,8.0,8.5,100,0.00,,SKC,0.06,VWS V14.01,2013-01-14 17:18:00,
2013-01-14 12:21:00,51.3,51.3,29.95,NNE,24,9.3,9.6,100,0.00,,SKC,0.06,VWS V14.01,2013-01-14 17:21:00,
2013-01-14 12:22:00,51.3,51.3,29.95,NNE,30,11.7,11.7,100,0.00,,SKC,0.06,VWS V14.01,2013-01-14 17:22:00,
2013-01-14 12:23:00,51.3,51.3,29.95,NNE,22,7.0,10.6,100,0.00,,SKC,0.06,VWS V14.01,2013-01-14 17:23:00,
2013-01-14 12:26:00,51.4,51.4,29.95,NE,51,4.0,5.2,100,0.00,,SKC,0.06,VWS V14.01,2013-01-14 17:26:00,
2013-01-14 12:27:00,51.4,51.4,29.95,ENE,72,3.4,3.9,100,0.00,,SKC,0.06,VWS V14.01,2013-01-14 17:27:00,
2013-01-14 12:28:00,51.4,51.4,29.95,NE,39,6.6,7.0,100,0.00,,SKC,0.06,VWS V14.01,2013-01-14 17:28:00,
2013-01-14 12:31:00,51.6,51.6,29.95,NNE,21,2.3,7.8,100,0.00,,SKC,0.06,VWS V14.01,2013-01-14 17:31:00,
2013-01-14 12:32:00,51.7,51.7,29.95,NE,45,2.4,5.0,100,0.00,,SKC,0.06,VWS V14.01,2013-01-14 17:32:00,
2013-01-14 12:34:00,51.8,51.9,29.94,NE,45,6.1,6.6,100,0.00,,SKC,0.06,VWS V14.01,2013-01-14 17:34:00,
2013-01-14 12:37:00,51.9,51.9,29.94,NE,48,0.6,0.9,100,0.00,,SKC,0.06,VWS V14.01,2013-01-14 17:37:00,
2013-01-14 12:39:00,52.0,52.0,29.95,NNE,24,8.7,8.8,100,0.00,,SKC,0.06,VWS V14.01,2013-01-14 17:39:00,
2013-01-14 12:42:00,52.1,52.0,29.94,ENE,60,5.1,5.1,100,0.00,,SKC,0.06,VWS V14.01,2013-01-14 17:42:00,
2013-01-14 12:44:00,52.1,52.1,29.94,ENE,70,5.5,6.3,100,0.00,,SKC,0.06,VWS V14.01,2013-01-14 17:44:00,
2013-01-14 12:47:00,52.2,52.2,29.93,ENE,76,4.2,5.0,100,0.00,,SKC,0.06,VWS V14.01,2013-01-14 17:47:00,
2013-01-14 12:49:00,52.2,52.2,29.93,NE,49,3.6,5.0,100,0.00,,SKC,0.06,VWS V14.01,2013-01-14 17:49:00,
2013-01-14 12:52:00,52.3,52.3,29.93,NE,53,6.7,7.6,100,0.00,,SKC,0.06,VWS V14.01,2013-01-14 17:52:00,
2013-01-14 12:54:00,52.3,52.3,29.92,NE,46,6.5,9.3,100,0.00,,SKC,0.06,VWS V14.01,2013-01-14 17:54:00,
2013-01-14 12:57:00,52.4,52.4,29.92,ENE,66,7.0,7.4,100,0.00,,SKC,0.06,VWS V14.01,2013-01-14 17:57:00,
2013-01-14 12:58:00,52.4,52.3,29.92,NE,56,6.8,8.3,100,0.00,,SKC,0.06,VWS V14.01,2013-01-14 17:58:00,
2013-01-14 13:00:00,52.4,52.4,29.92,NE,34,4.5,6.1,100,0.00,,SKC,0.06,VWS V14.01,2013-01-14 18:00:00,
2013-01-14 13:02:00,52.5,52.5,29.92,ENE,68,2.0,2.0,100,0.00,,SKC,0.06,VWS V14.01,2013-01-14 18:02:00,
2013-01-14 13:03:00,52.6,52.6,29.92,ENE,72,6.8,7.6,100,0.00,,SKC,0.06,VWS V14.01,2013-01-14 18:03:00,
2013-01-14 13:05:00,52.8,52.8,29.92,ENE,75,3.4,4.8,100,0.00,,SKC,0.06,VWS V14.01,2013-01-14 18:05:00,
2013-01-14 13:07:00,52.8,52.8,29.92,NE,52,5.2,6.6,100,0.00,,SKC,0.06,VWS V14.01,2013-01-14 18:07:00,
2013-01-14 13:08:00,52.9,52.9,29.92,NE,55,4.5,4.7,100,0.00,,SKC,0.06,VWS V14.01,2013-01-14 18:08:00,
2013-01-14 13:10:00,53.0,53.0,29.92,East,84,4.7,6.8,100,0.00,,SKC,0.06,VWS V14.01,2013-01-14 18:10:00,
2013-01-14 13:12:00,53.0,53.0,29.91,ENE,58,2.0,5.3,100,0.00,,SKC,0.06,VWS V14.01,2013-01-14 18:12:00,
2013-01-14 13:13:00,53.0,53.0,29.91,ENE,59,3.0,3.0,100,0.00,,SKC,0.06,VWS V14.01,2013-01-14 18:13:00,
2013-01-14 13:15:00,53.2,53.2,29.91,ENE,63,2.7,5.8,100,0.00,,SKC,0.06,VWS V14.01,2013-01-14 18:15:00,
2013-01-14 13:17:00,53.3,53.3,29.91,NE,44,4.9,6.8,100,0.00,,SKC,0.06,VWS V14.01,2013-01-14 18:17:00,
2013-01-14 13:18:00,53.3,53.3,29.91,NE,56,4.8,6.8,100,0.00,,SKC,0.06,VWS V14.01,2013-01-14 18:18:00,
2013-01-14 13:20:00,53.3,53.3,29.91,ENE,58,3.4,5.5,100,0.00,,SKC,0.06,VWS V14.01,2013-01-14 18:20:00,
2013-01-14 13:22:00,53.4,53.4,29.91,ENE,58,6.3,8.3,100,0.00,,SKC,0.06,VWS V14.01,2013-01-14 18:22:00,
2013-01-14 13:24:00,53.4,53.4,29.91,NE,42,3.5,3.8,100,0.00,,SKC,0.06,VWS V14.01,2013-01-14 18:24:00,
2013-01-14 13:26:00,53.6,53.6,29.91,ENE,59,5.2,5.2,100,0.00,,SKC,0.06,VWS V14.01,2013-01-14 18:26:00,
2013-01-14 13:27:00,53.6,53.6,29.91,NNE,31,5.5,8.2,100,0.00,,SKC,0.06,VWS V14.01,2013-01-14 18:27:00,
2013-01-14 13:28:00,53.6,53.6,29.91,NE,48,5.1,6.2,100,0.00,,SKC,0.06,VWS V14.01,2013-01-14 18:28:00,
2013-01-14 13:29:00,53.7,53.7,29.91,ENE,66,6.6,7.4,100,0.00,,SKC,0.06,VWS V14.01,2013-01-14 18:29:00,
2013-01-14 13:31:00,53.8,53.8,29.91,NE,46,3.2,5.8,100,0.00,,SKC,0.06,VWS V14.01,2013-01-14 18:31:00,
2013-01-14 13:33:00,53.9,53.9,29.92,ENE,66,3.4,6.4,100,0.00,,SKC,0.06,VWS V14.01,2013-01-14 18:33:00,
2013-01-14 13:34:00,54.0,54.0,29.91,NNE,20,8.0,8.0,100,0.00,,SKC,0.06,VWS V14.01,2013-01-14 18:34:00,
2013-01-14 13:36:00,54.0,54.0,29.91,NE,35,4.2,5.2,100,0.00,,SKC,0.06,VWS V14.01,2013-01-14 18:36:00,
2013-01-14 13:38:00,54.0,54.0,29.91,NNE,32,5.9,6.6,100,0.00,,SKC,0.06,VWS V14.01,2013-01-14 18:38:00,
2013-01-14 13:39:00,54.0,54.0,29.92,NE,39,3.5,4.8,100,0.00,,SKC,0.06,VWS V14.01,2013-01-14 18:39:00,
2013-01-14 13:41:00,54.1,54.1,29.92,NNE,18,6.5,7.3,100,0.00,,SKC,0.06,VWS V14.01,2013-01-14 18:41:00,
2013-01-14 13:43:00,54.1,54.1,29.92,NNE,28,6.3,6.5,100,0.00,,SKC,0.06,VWS V14.01,2013-01-14 18:43:00,
2013-01-14 13:44:00,54.2,54.2,29.92,NNE,30,5.2,7.0,100,0.00,,SKC,0.06,VWS V14.01,2013-01-14 18:44:00,
2013-01-14 13:46:00,54.4,54.4,29.91,NNE,21,4.4,6.2,100,0.00,,SKC,0.06,VWS V14.01,2013-01-14 18:46:00,
2013-01-14 13:48:00,54.5,54.5,29.91,NE,55,3.7,4.0,100,0.00,,SKC,0.06,VWS V14.01,2013-01-14 18:48:00,
2013-01-14 13:49:00,54.6,54.6,29.91,East,80,5.2,5.4,100,0.00,,SKC,0.06,VWS V14.01,2013-01-14 18:49:00,
2013-01-14 13:52:00,54.7,54.7,29.91,ENE,76,2.4,2.5,100,0.00,,SKC,0.06,VWS V14.01,2013-01-14 18:52:00,
2013-01-14 13:53:00,54.9,54.9,29.91,ENE,65,0.9,2.9,100,0.00,,SKC,0.06,VWS V14.01,2013-01-14 18:53:00,
2013-01-14 13:54:00,54.9,54.9,29.91,East,83,2.7,2.9,100,0.00,,SKC,0.06,VWS V14.01,2013-01-14 18:54:00,
2013-01-14 13:57:00,55.1,55.1,29.92,NE,39,3.8,5.3,100,0.00,,SKC,0.06,VWS V14.01,2013-01-14 18:57:00,
2013-01-14 13:58:00,55.1,55.1,29.91,NNE,32,5.0,5.7,100,0.00,,SKC,0.06,VWS V14.01,2013-01-14 18:58:00,
2013-01-14 13:59:00,55.2,55.2,29.91,NE,34,2.7,5.7,100,0.00,,SKC,0.06,VWS V14.01,2013-01-14 18:59:00,
2013-01-14 14:02:00,55.2,55.2,29.92,NNE,22,6.5,7.0,100,0.00,,SKC,0.06,VWS V14.01,2013-01-14 19:02:00,
2013-01-14 14:03:00,55.3,55.3,29.92,NE,35,7.0,7.8,100,0.00,,SKC,0.06,VWS V14.01,2013-01-14 19:03:00,
2013-01-14 14:04:00,55.3,55.3,29.92,NE,38,6.4,6.5,100,0.00,,SKC,0.06,VWS V14.01,2013-01-14 19:04:00,
2013-01-14 14:07:00,55.3,55.3,29.92,NNE,32,3.9,3.9,100,0.00,,SKC,0.06,VWS V14.01,2013-01-14 19:07:00,
2013-01-14 14:08:00,55.3,55.3,29.92,NNE,31,5.2,5.2,100,0.00,,SKC,0.06,VWS V14.01,2013-01-14 19:08:00,
2013-01-14 14:09:00,55.4,55.4,29.92,NE,35,7.1,7.4,100,0.00,,SKC,0.06,VWS V14.01,2013-01-14 19:09:00,
2013-01-14 14:10:00,55.4,55.4,29.92,North,7,7.3,7.3,100,0.00,,SKC,0.06,VWS V14.01,2013-01-14 19:10:00,
2013-01-14 14:12:00,55.4,55.4,29.92,North,6,7.5,7.5,100,0.00,,SKC,0.06,VWS V14.01,2013-01-14 19:12:00,
2013-01-14 14:13:00,55.4,55.4,29.92,North,4,8.6,10.4,100,0.00,,SKC,0.06,VWS V14.01,2013-01-14 19:13:00,
2013-01-14 14:14:00,55.4,55.4,29.92,North,350,6.2,7.4,100,0.00,,SKC,0.06,VWS V14.01,2013-01-14 19:14:00,
2013-01-14 14:15:00,55.4,55.4,29.92,North,3,5.4,8.6,100,0.00,,SKC,0.06,VWS V14.01,2013-01-14 19:15:00,
2013-01-14 14:17:00,55.3,55.3,29.92,NNE,27,7.9,9.1,100,0.00,,SKC,0.06,VWS V14.01,2013-01-14 19:17:00,
2013-01-14 14:18:00,55.4,55.4,29.92,North,0,8.5,8.5,100,0.00,,SKC,0.06,VWS V14.01,2013-01-14 19:18:00,
2013-01-14 14:19:00,55.4,55.4,29.92,NNE,25,7.0,8.9,100,0.00,,SKC,0.06,VWS V14.01,2013-01-14 19:19:00,
2013-01-14 14:20:00,55.4,55.4,29.92,NNE,20,8.0,9.4,100,0.00,,SKC,0.06,VWS V14.01,2013-01-14 19:20:00,
2013-01-14 14:24:00,55.2,55.2,29.92,NNE,15,5.0,7.3,100,0.00,,SKC,0.06,VWS V14.01,2013-01-14 19:24:00,
2013-01-14 14:25:00,55.2,55.2,29.92,NE,37,7.5,7.5,100,0.00,,SKC,0.06,VWS V14.01,2013-01-14 19:25:00,
2013-01-14 14:26:00,55.2,55.2,29.92,NNE,22,7.6,8.6,100,0.00,,SKC,0.06,VWS V14.01,2013-01-14 19:26:00,
2013-01-14 14:29:00,55.1,55.1,29.92,NNE,14,7.0,8.4,100,0.00,,SKC,0.06,VWS V14.01,2013-01-14 19:29:00,
2013-01-14 14:30:00,55.1,55.1,29.92,NNE,13,8.5,8.5,100,0.00,,SKC,0.06,VWS V14.01,2013-01-14 19:30:00,
2013-01-14 14:31:00,55.1,55.1,29.92,North,4,4.6,4.9,100,0.00,,SKC,0.06,VWS V14.01,2013-01-14 19:31:00,
2013-01-14 14:34:00,55.0,55.0,29.92,NNW,340,4.5,5.6,100,0.00,,SKC,0.06,VWS V14.01,2013-01-14 19:34:00,
2013-01-14 14:35:00,55.1,55.1,29.92,NE,39,5.6,7.7,100,0.00,,SKC,0.06,VWS V14.01,2013-01-14 19:35:00,
2013-01-14 14:36:00,55.0,55.0,29.92,NNE,28,6.0,8.4,100,0.00,,SKC,0.06,VWS V14.01,2013-01-14 19:36:00,
2013-01-14 14:40:00,54.9,54.9,29.91,North,0,8.5,9.3,100,0.00,,SKC,0.06,VWS V14.01,2013-01-14 19:40:00,
2013-01-14 14:41:00,54.9,54.9,29.92,NE,38,6.5,6.8,100,0.00,,SKC,0.06,VWS V14.01,2013-01-14 19:41:00,
2013-01-14 14:45:00,54.9,54.9,29.91,NNE,20,7.1,7.4,100,0.00,,SKC,0.06,VWS V14.01,2013-01-14 19:45:00,
2013-01-14 14:46:00,55.0,55.0,29.91,NE,35,8.6,8.6,100,0.00,,SKC,0.06,VWS V14.01,2013-01-14 19:46:00,
2013-01-14 14:50:00,54.9,54.8,29.91,North,7,8.7,11.7,100,0.00,,SKC,0.06,VWS V14.01,2013-01-14 19:50:00,
2013-01-14 14:51:00,54.7,54.7,29.92,North,1,7.8,9.4,100,0.00,,SKC,0.06,VWS V14.01,2013-01-14 19:51:00,
2013-01-14 14:55:00,54.6,54.6,29.92,NNE,17,9.1,9.1,100,0.00,,SKC,0.06,VWS V14.01,2013-01-14 19:55:00,
2013-01-14 14:56:00,54.5,54.5,29.92,NNE,15,10.6,12.9,100,0.00,,SKC,0.06,VWS V14.01,2013-01-14 19:56:00,
2013-01-14 15:00:00,54.5,54.6,29.92,North,357,8.1,9.3,100,0.00,,SKC,0.06,VWS V14.01,2013-01-14 20:00:00,
2013-01-14 15:01:00,54.6,54.6,29.92,NNE,17,5.7,9.8,100,0.00,,SKC,0.06,VWS V14.01,2013-01-14 20:01:00,
2013-01-14 15:05:00,54.5,54.5,29.93,NNE,14,9.6,10.9,100,0.00,,SKC,0.06,VWS V14.01,2013-01-14 20:05:00,
2013-01-14 15:07:00,54.3,54.3,29.93,NE,45,6.3,8.5,100,0.00,,SKC,0.06,VWS V14.01,2013-01-14 20:07:00,
2013-01-14 15:10:00,54.3,54.3,29.92,NNE,17,5.7,8.0,100,0.00,,SKC,0.06,VWS V14.01,2013-01-14 20:10:00,
2013-01-14 15:11:00,54.2,54.2,29.92,NNE,28,6.2,8.0,100,0.00,,SKC,0.06,VWS V14.01,2013-01-14 20:11:00,
2013-01-14 15:12:00,54.2,54.2,29.93,NNE,27,8.6,8.6,100,0.00,,SKC,0.06,VWS V14.01,2013-01-14 20:12:00,
2013-01-14 15:15:00,54.1,54.1,29.93,NNE,25,9.1,9.1,100,0.00,,SKC,0.06,VWS V14.01,2013-01-14 20:15:00,
2013-01-14 15:16:00,54.1,54.1,29.92,NNE,24,7.1,9.4,100,0.00,,SKC,0.06,VWS V14.01,2013-01-14 20:16:00,
2013-01-14 15:17:00,54.0,54.0,29.92,NE,37,7.1,8.5,100,0.00,,SKC,0.06,VWS V14.01,2013-01-14 20:17:00,
2013-01-14 15:20:00,54.0,54.0,29.92,NNE,32,7.5,9.1,100,0.00,,SKC,0.06,VWS V14.01,2013-01-14 20:20:00,
2013-01-14 15:21:00,54.1,54.1,29.92,NNE,28,8.7,9.1,100,0.00,,SKC,0.06,VWS V14.01,2013-01-14 20:21:00,
2013-01-14 15:22:00,54.1,54.1,29.92,NE,39,5.3,7.4,100,0.00,,SKC,0.06,VWS V14.01,2013-01-14 20:22:00,
2013-01-14 15:25:00,54.2,54.2,29.92,ENE,66,4.3,4.3,100,0.00,,SKC,0.06,VWS V14.01,2013-01-14 20:25:00,
2013-01-14 15:26:00,54.2,54.2,29.92,ENE,59,4.0,4.7,100,0.00,,SKC,0.06,VWS V14.01,2013-01-14 20:26:00,
2013-01-14 15:27:00,54.3,54.3,29.92,North,8,9.1,9.3,100,0.00,,SKC,0.06,VWS V14.01,2013-01-14 20:27:00,
2013-01-14 15:30:00,54.4,54.4,29.92,East,84,8.9,9.4,100,0.00,,SKC,0.06,VWS V14.01,2013-01-14 20:30:00,
2013-01-14 15:31:00,54.4,54.4,29.92,NE,45,6.0,10.3,100,0.00,,SKC,0.06,VWS V14.01,2013-01-14 20:31:00,
2013-01-14 15:32:00,54.4,54.4,29.92,NNE,25,11.1,11.9,100,0.00,,SKC,0.06,VWS V14.01,2013-01-14 20:32:00,
2013-01-14 15:35:00,54.3,54.3,29.92,NNE,21,10.8,12.8,100,0.00,,SKC,0.06,VWS V14.01,2013-01-14 20:35:00,
2013-01-14 15:36:00,54.3,54.3,29.92,North,4,11.4,11.4,100,0.00,,SKC,0.06,VWS V14.01,2013-01-14 20:36:00,
2013-01-14 15:37:00,54.2,54.2,29.92,NE,37,8.0,14.1,100,0.00,,SKC,0.06,VWS V14.01,2013-01-14 20:37:00,
2013-01-14 15:40:00,54.2,54.2,29.93,NNE,20,6.3,9.1,100,0.00,,SKC,0.06,VWS V14.01,2013-01-14 20:40:00,
2013-01-14 15:41:00,54.2,54.2,29.92,NNE,18,6.2,7.0,100,0.00,,SKC,0.06,VWS V14.01,2013-01-14 20:41:00,
2013-01-14 15:42:00,54.2,54.2,29.93,NE,37,6.2,12.6,100,0.00,,SKC,0.06,VWS V14.01,2013-01-14 20:42:00,
2013-01-14 15:45:00,54.2,54.2,29.93,North,8,11.4,13.8,100,0.00,,SKC,0.06,VWS V14.01,2013-01-14 20:45:00,
2013-01-14 15:46:00,54.2,54.2,29.93,NE,37,7.8,10.6,100,0.00,,SKC,0.06,VWS V14.01,2013-01-14 20:46:00,
2013-01-14 15:47:00,54.2,54.2,29.93,NE,34,8.1,12.9,100,0.00,,SKC,0.06,VWS V14.01,2013-01-14 20:47:00,
2013-01-14 15:50:00,54.1,54.1,29.93,North,359,7.9,12.4,100,0.00,,SKC,0.06,VWS V14.01,2013-01-14 20:50:00,
2013-01-14 15:51:00,54.1,54.2,29.93,NNE,30,6.5,7.5,100,0.00,,SKC,0.06,VWS V14.01,2013-01-14 20:51:00,
2013-01-14 15:52:00,54.2,54.2,29.93,NE,45,9.3,9.6,100,0.00,,SKC,0.06,VWS V14.01,2013-01-14 20:52:00,
2013-01-14 15:55:00,54.1,54.1,29.93,North,3,7.0,11.7,100,0.00,,SKC,0.06,VWS V14.01,2013-01-14 20:55:00,
2013-01-14 15:56:00,54.1,54.1,29.93,North,359,6.7,6.8,100,0.00,,SKC,0.06,VWS V14.01,2013-01-14 20:56:00,
2013-01-14 15:57:00,54.1,54.1,29.93,North,7,10.1,14.8,100,0.00,,SKC,0.06,VWS V14.01,2013-01-14 20:57:00,
2013-01-14 16:00:00,54.0,54.0,29.93,NE,37,6.5,13.4,100,0.00,,SKC,0.06,VWS V14.01,2013-01-14 21:00:00,
2013-01-14 16:01:00,54.0,54.0,29.93,NNE,28,8.6,8.6,100,0.00,,SKC,0.06,VWS V14.01,2013-01-14 21:01:00,
2013-01-14 16:02:00,54.0,54.0,29.92,NE,49,6.5,12.9,100,0.00,,SKC,0.06,VWS V14.01,2013-01-14 21:02:00,
2013-01-14 16:05:00,54.0,54.0,29.92,NE,51,3.7,10.5,100,0.00,,SKC,0.06,VWS V14.01,2013-01-14 21:05:00,
2013-01-14 16:06:00,54.0,54.0,29.92,East,86,9.6,9.6,100,0.00,,SKC,0.06,VWS V14.01,2013-01-14 21:06:00,
2013-01-14 16:08:00,54.0,54.0,29.92,NNE,30,6.4,10.9,100,0.00,,SKC,0.06,VWS V14.01,2013-01-14 21:08:00,
2013-01-14 16:10:00,54.0,54.0,29.92,NNE,22,8.6,11.4,100,0.00,,SKC,0.06,VWS V14.01,2013-01-14 21:10:00,
2013-01-14 16:11:00,53.9,53.9,29.92,North,6,8.3,9.6,100,0.00,,SKC,0.06,VWS V14.01,2013-01-14 21:11:00,
2013-01-14 16:13:00,54.0,54.0,29.92,ENE,60,7.9,11.2,100,0.00,,SKC,0.06,VWS V14.01,2013-01-14 21:13:00,
2013-01-14 16:16:00,54.0,54.0,29.92,North,10,7.5,8.6,100,0.00,,SKC,0.06,VWS V14.01,2013-01-14 21:16:00,
2013-01-14 16:19:00,54.0,54.0,29.92,North,350,8.0,8.0,100,0.00,,SKC,0.06,VWS V14.01,2013-01-14 21:19:00,
2013-01-14 16:21:00,53.9,53.9,29.92,NNE,15,8.6,15.5,100,0.00,,SKC,0.06,VWS V14.01,2013-01-14 21:21:00,
2013-01-14 16:24:00,54.0,53.9,29.92,NNE,17,9.3,12.2,100,0.00,,SKC,0.06,VWS V14.01,2013-01-14 21:24:00,
2013-01-14 16:26:00,54.0,53.9,29.93,North,4,9.2,9.2,100,0.00,,SKC,0.06,VWS V14.01,2013-01-14 21:26:00,
2013-01-14 16:29:00,53.9,53.9,29.93,NNE,20,10.1,10.6,100,0.00,,SKC,0.06,VWS V14.01,2013-01-14 21:29:00,
2013-01-14 16:31:00,53.9,53.9,29.93,NNE,25,9.7,9.7,100,0.00,,SKC,0.06,VWS V14.01,2013-01-14 21:31:00,
2013-01-14 16:32:00,53.9,53.9,29.93,North,7,8.4,9.7,100,0.00,,SKC,0.06,VWS V14.01,2013-01-14 21:32:00,
2013-01-14 16:34:00,53.9,53.9,29.93,North,11,11.1,11.2,100,0.00,,SKC,0.06,VWS V14.01,2013-01-14 21:34:00,
2013-01-14 16:36:00,53.9,53.9,29.93,NNE,30,9.9,10.6,100,0.00,,SKC,0.06,VWS V14.01,2013-01-14 21:36:00,
2013-01-14 16:37:00,53.8,53.8,29.94,NE,37,13.5,14.0,100,0.00,,SKC,0.06,VWS V14.01,2013-01-14 21:37:00,
2013-01-14 16:39:00,53.7,53.7,29.94,North,357,11.2,13.3,100,0.00,,SKC,0.06,VWS V14.01,2013-01-14 21:39:00,
2013-01-14 16:41:00,53.6,53.6,29.94,NE,48,9.6,10.7,100,0.00,,SKC,0.06,VWS V14.01,2013-01-14 21:41:00,
2013-01-14 16:42:00,53.6,53.6,29.94,North,8,9.8,11.7,100,0.00,,SKC,0.06,VWS V14.01,2013-01-14 21:42:00,
2013-01-14 16:44:00,53.6,53.6,29.94,NNE,22,13.5,14.9,100,0.00,,SKC,0.06,VWS V14.01,2013-01-14 21:44:00,
2013-01-14 16:46:00,53.5,53.5,29.95,NNE,22,12.9,15.7,100,0.00,,SKC,0.06,VWS V14.01,2013-01-14 21:46:00,
2013-01-14 16:47:00,53.5,53.5,29.95,North,1,13.9,13.9,100,0.00,,SKC,0.06,VWS V14.01,2013-01-14 21:47:00,
2013-01-14 16:49:00,53.5,53.4,29.95,NNE,28,10.5,13.0,100,0.00,,SKC,0.06,VWS V14.01,2013-01-14 21:49:00,
2013-01-14 16:51:00,53.5,53.5,29.95,NNE,27,11.7,12.8,100,0.00,,SKC,0.06,VWS V14.01,2013-01-14 21:51:00,
2013-01-14 16:52:00,53.5,53.5,29.95,North,7,14.2,14.2,100,0.00,,SKC,0.06,VWS V14.01,2013-01-14 21:52:00,
2013-01-14 16:54:00,53.3,53.3,29.95,NNE,20,14.5,15.0,100,0.00,,SKC,0.06,VWS V14.01,2013-01-14 21:54:00,
2013-01-14 16:57:00,53.1,53.1,29.96,NE,38,9.6,9.6,100,0.00,,SKC,0.06,VWS V14.01,2013-01-14 21:57:00,
2013-01-14 16:59:00,53.0,53.0,29.96,NNE,15,10.7,19.0,100,0.00,,SKC,0.06,VWS V14.01,2013-01-14 21:59:00,
2013-01-14 17:02:00,52.8,52.8,29.96,North,354,16.2,18.1,100,0.00,,SKC,0.06,VWS V14.01,2013-01-14 22:02:00,
2013-01-14 17:04:00,52.7,52.7,29.95,North,8,12.9,16.9,100,0.00,,SKC,0.06,VWS V14.01,2013-01-14 22:04:00,
2013-01-14 17:07:00,52.6,52.6,29.95,NNE,27,5.3,13.2,100,0.00,,SKC,0.06,VWS V14.01,2013-01-14 22:07:00,
2013-01-14 17:09:00,52.6,52.6,29.95,NNE,25,9.8,16.5,100,0.00,,SKC,0.06,VWS V14.01,2013-01-14 22:09:00,
2013-01-14 17:12:00,52.4,52.4,29.96,NNE,24,14.2,14.2,100,0.00,,SKC,0.06,VWS V14.01,2013-01-14 22:12:00,
2013-01-14 17:14:00,52.4,52.4,29.96,North,1,8.9,16.2,100,0.00,,SKC,0.06,VWS V14.01,2013-01-14 22:14:00,
2013-01-14 17:17:00,52.4,52.4,29.96,North,3,12.5,16.8,100,0.00,,SKC,0.06,VWS V14.01,2013-01-14 22:17:00,
2013-01-14 17:20:00,52.3,52.3,29.96,NNE,15,10.7,11.4,100,0.00,,SKC,0.06,VWS V14.01,2013-01-14 22:20:00,
2013-01-14 17:22:00,52.2,52.2,29.96,NE,37,11.0,18.3,100,0.00,,SKC,0.06,VWS V14.01,2013-01-14 22:22:00,
2013-01-14 17:23:00,52.3,52.3,29.96,NNE,28,18.1,19.8,100,0.00,,SKC,0.06,VWS V14.01,2013-01-14 22:23:00,
2013-01-14 17:25:00,52.3,52.3,29.96,NE,53,3.4,12.4,100,0.00,,SKC,0.06,VWS V14.01,2013-01-14 22:25:00,
2013-01-14 17:27:00,52.2,52.2,29.96,NE,34,14.8,16.5,100,0.00,,SKC,0.06,VWS V14.01,2013-01-14 22:27:00,
2013-01-14 17:28:00,52.1,52.1,29.96,NNE,15,9.0,12.7,100,0.00,,SKC,0.06,VWS V14.01,2013-01-14 22:28:00,
2013-01-14 17:30:00,52.1,52.1,29.96,NNE,31,10.3,18.8,100,0.00,,SKC,0.06,VWS V14.01,2013-01-14 22:30:00,
2013-01-14 17:32:00,51.9,52.0,29.96,NNE,20,11.9,17.6,100,0.00,,SKC,0.06,VWS V14.01,2013-01-14 22:32:00,
2013-01-14 17:33:00,51.9,51.9,29.96,NNE,15,13.9,17.6,100,0.00,,SKC,0.06,VWS V14.01,2013-01-14 22:33:00,
2013-01-14 17:35:00,51.7,51.7,29.96,NNE,28,12.4,18.3,100,0.00,,SKC,0.06,VWS V14.01,2013-01-14 22:35:00,
2013-01-14 17:37:00,51.5,51.5,29.96,ENE,65,8.8,15.0,100,0.00,,SKC,0.06,VWS V14.01,2013-01-14 22:37:00,
2013-01-14 17:38:00,51.4,51.4,29.96,NE,37,12.4,15.0,100,0.00,,SKC,0.06,VWS V14.01,2013-01-14 22:38:00,
2013-01-14 17:39:00,51.4,51.4,29.96,NNE,18,11.1,14.9,100,0.00,,SKC,0.06,VWS V14.01,2013-01-14 22:39:00,
2013-01-14 17:40:00,51.4,51.4,29.96,North,7,9.7,25.1,100,0.00,,SKC,0.06,VWS V14.01,2013-01-14 22:40:00,
2013-01-14 17:42:00,51.2,51.2,29.96,NNE,18,10.7,12.0,100,0.00,,SKC,0.06,VWS V14.01,2013-01-14 22:42:00,
2013-01-14 17:43:00,51.3,51.3,29.96,NE,34,9.4,9.6,100,0.00,,SKC,0.06,VWS V14.01,2013-01-14 22:43:00,
2013-01-14 17:44:00,51.3,51.3,29.96,North,11,8.6,11.2,100,0.00,,SKC,0.06,VWS V14.01,2013-01-14 22:44:00,
2013-01-14 17:45:00,51.3,51.3,29.96,ENE,60,7.8,14.4,100,0.00,,SKC,0.06,VWS V14.01,2013-01-14 22:45:00,
2013-01-14 17:47:00,51.2,51.2,29.97,NNE,18,13.6,16.5,100,0.00,,SKC,0.06,VWS V14.01,2013-01-14 22:47:00,
2013-01-14 17:48:00,51.3,51.2,29.97,North,11,8.9,10.6,100,0.00,,SKC,0.06,VWS V14.01,2013-01-14 22:48:00,
2013-01-14 17:49:00,51.2,51.2,29.96,NNE,31,11.6,12.5,100,0.00,,SKC,0.06,VWS V14.01,2013-01-14 22:49:00,
2013-01-14 17:51:00,51.1,51.1,29.96,NNE,13,13.3,13.3,100,0.00,,SKC,0.06,VWS V14.01,2013-01-14 22:51:00,
2013-01-14 17:52:00,51.0,51.0,29.96,NNE,24,11.0,15.7,100,0.00,,SKC,0.06,VWS V14.01,2013-01-14 22:52:00,
2013-01-14 17:53:00,51.1,51.1,29.96,NE,53,13.5,14.5,100,0.00,,SKC,0.06,VWS V14.01,2013-01-14 22:53:00,
2013-01-14 17:54:00,51.0,51.0,29.96,North,356,19.7,19.7,100,0.00,,SKC,0.06,VWS V14.01,2013-01-14 22:54:00,
2013-01-14 17:56:00,50.9,50.9,29.96,NE,34,11.7,11.7,100,0.00,,SKC,0.06,VWS V14.01,2013-01-14 22:56:00,
2013-01-14 17:58:00,50.8,50.8,29.96,North,0,13.5,15.5,100,0.00,,SKC,0.06,VWS V14.01,2013-01-14 22:58:00,
2013-01-14 17:59:00,50.7,50.7,29.96,NNE,30,13.0,16.3,100,0.00,,SKC,0.06,VWS V14.01,2013-01-14 22:59:00,
2013-01-14 18:01:00,50.7,50.7,29.97,NNE,18,15.8,17.0,100,0.00,,SKC,0.06,VWS V14.01,2013-01-14 23:01:00,
2013-01-14 18:03:00,50.5,50.5,29.97,North,10,14.9,17.7,100,0.00,,SKC,0.06,VWS V14.01,2013-01-14 23:03:00,
2013-01-14 18:04:00,50.5,50.4,29.97,NNE,24,11.1,15.9,100,0.00,,SKC,0.06,VWS V14.01,2013-01-14 23:04:00,
2013-01-14 18:06:00,50.3,50.3,29.97,NNE,22,10.6,11.6,100,0.00,,SKC,0.06,VWS V14.01,2013-01-14 23:06:00,
2013-01-14 18:08:00,50.1,50.1,29.97,NNE,13,14.3,19.0,100,0.00,,SKC,0.06,VWS V14.01,2013-01-14 23:08:00,
2013-01-14 18:09:00,50.0,50.0,29.97,North,10,11.0,18.5,100,0.00,,SKC,0.06,VWS V14.01,2013-01-14 23:09:00,
2013-01-14 18:11:00,49.9,49.9,29.97,NNE,22,14.2,16.8,100,0.00,,SKC,0.06,VWS V14.01,2013-01-14 23:11:00,
2013-01-14 18:13:00,49.9,49.9,29.97,NNE,27,20.2,20.2,100,0.00,,SKC,0.06,VWS V14.01,2013-01-14 23:13:00,
2013-01-14 18:14:00,49.8,49.8,29.97,NNE,32,14.9,21.5,100,0.00,,SKC,0.06,VWS V14.01,2013-01-14 23:14:00,
2013-01-14 18:16:00,49.8,49.8,29.97,NNE,22,18.7,18.7,100,0.00,,SKC,0.06,VWS V14.01,2013-01-14 23:16:00,
2013-01-14 18:18:00,49.7,49.7,29.97,North,0,17.5,19.1,100,0.00,,SKC,0.06,VWS V14.01,2013-01-14 23:18:00,
2013-01-14 18:19:00,49.7,49.6,29.97,NE,42,9.7,17.5,100,0.00,,SKC,0.06,VWS V14.01,2013-01-14 23:19:00,
2013-01-14 18:21:00,49.6,49.6,29.97,North,8,17.6,20.8,100,0.00,,SKC,0.06,VWS V14.01,2013-01-14 23:21:00,
2013-01-14 18:23:00,49.5,49.5,29.97,NE,41,10.5,11.6,100,0.00,,SKC,0.06,VWS V14.01,2013-01-14 23:23:00,
2013-01-14 18:24:00,49.4,49.4,29.97,North,4,11.4,17.7,100,0.00,,SKC,0.06,VWS V14.01,2013-01-14 23:24:00,
2013-01-14 18:26:00,49.4,49.4,29.97,NE,39,15.3,17.0,100,0.00,,SKC,0.06,VWS V14.01,2013-01-14 23:26:00,
2013-01-14 18:28:00,49.2,49.2,29.97,ENE,63,7.4,13.9,100,0.00,,SKC,0.06,VWS V14.01,2013-01-14 23:28:00,
2013-01-14 18:30:00,49.3,49.3,29.97,NE,52,7.0,16.6,100,0.00,,SKC,0.06,VWS V14.01,2013-01-14 23:30:00,
2013-01-14 18:31:00,49.3,49.3,29.97,NE,46,11.6,11.6,100,0.00,,SKC,0.06,VWS V14.01,2013-01-14 23:31:00,
2013-01-14 18:33:00,49.2,49.2,29.97,North,3,15.1,20.4,100,0.00,,SKC,0.06,VWS V14.01,2013-01-14 23:33:00,
2013-01-14 18:35:00,49.3,49.3,29.98,NNE,32,7.7,16.8,100,0.00,,SKC,0.06,VWS V14.01,2013-01-14 23:35:00,
2013-01-14 18:36:00,49.3,49.3,29.97,NE,49,12.9,14.7,100,0.00,,SKC,0.06,VWS V14.01,2013-01-14 23:36:00,
2013-01-14 18:38:00,49.1,49.1,29.98,North,4,13.9,16.2,100,0.00,,SKC,0.06,VWS V14.01,2013-01-14 23:38:00,
2013-01-14 18:40:00,49.2,49.1,29.97,NNE,18,12.1,15.1,100,0.00,,SKC,0.06,VWS V14.01,2013-01-14 23:40:00,
2013-01-14 18:41:00,49.1,49.1,29.97,NNE,31,13.5,16.5,100,0.00,,SKC,0.06,VWS V14.01,2013-01-14 23:41:00,
2013-01-14 18:43:00,49.0,49.0,29.97,NE,41,8.0,20.1,100,0.00,,SKC,0.06,VWS V14.01,2013-01-14 23:43:00,
2013-01-14 18:44:00,49.0,49.0,29.97,NE,37,16.0,16.0,100,0.00,,SKC,0.06,VWS V14.01,2013-01-14 23:44:00,
2013-01-14 18:45:00,49.0,49.0,29.97,NE,46,15.0,16.0,100,0.00,,SKC,0.06,VWS V14.01,2013-01-14 23:45:00,
2013-01-14 18:46:00,48.9,48.9,29.97,NE,45,12.7,16.2,100,0.00,,SKC,0.06,VWS V14.01,2013-01-14 23:46:00,
2013-01-14 18:48:00,48.8,48.8,29.97,NNE,25,10.5,13.9,100,0.00,,SKC,0.06,VWS V14.01,2013-01-14 23:48:00,
2013-01-14 18:49:00,48.8,48.8,29.97,North,0,9.4,9.4,100,0.00,,SKC,0.06,VWS V14.01,2013-01-14 23:49:00,
2013-01-14 18:50:00,48.8,48.8,29.98,NNE,17,12.8,12.8,100,0.00,,SKC,0.06,VWS V14.01,2013-01-14 23:50:00,
2013-01-14 18:51:00,48.7,48.7,29.98,NNE,20,14.5,22.0,100,0.00,,SKC,0.06,VWS V14.01,2013-01-14 23:51:00,
2013-01-14 18:54:00,48.5,48.5,29.97,NNE,32,10.6,21.3,100,0.00,,SKC,0.06,VWS V14.01,2013-01-14 23:54:00,
2013-01-14 18:55:00,48.5,48.5,29.97,NNE,13,15.1,15.1,100,0.00,,SKC,0.06,VWS V14.01,2013-01-14 23:55:00,
2013-01-14 18:57:00,48.4,48.4,29.98,NNE,25,9.8,12.9,100,0.00,,SKC,0.06,VWS V14.01,2013-01-14 23:57:00,
2013-01-14 18:59:00,48.3,48.3,29.97,NNE,15,11.3,15.9,100,0.00,,SKC,0.06,VWS V14.01,2013-01-14 23:59:00,
2013-01-14 19:00:00,48.3,48.3,29.97,ENE,70,7.8,15.3,100,0.00,,SKC,0.06,VWS V14.01,2013-01-15 00:00:00,
2013-01-14 19:02:00,48.2,48.2,29.97,ENE,60,7.7,14.7,100,0.00,,SKC,0.06,VWS V14.01,2013-01-15 00:02:00,
2013-01-14 19:04:00,48.2,48.2,29.97,NE,39,4.5,14.7,100,0.00,,SKC,0.06,VWS V14.01,2013-01-15 00:04:00,
2013-01-14 19:05:00,48.2,48.2,29.97,NE,41,12.6,14.7,100,0.00,,SKC,0.06,VWS V14.01,2013-01-15 00:05:00,
2013-01-14 19:07:00,48.1,48.1,29.97,NNE,30,12.1,12.4,100,0.00,,SKC,0.06,VWS V14.01,2013-01-15 00:07:00,
2013-01-14 19:09:00,48.0,48.0,29.98,NE,34,19.0,19.0,100,0.00,,SKC,0.06,VWS V14.01,2013-01-15 00:09:00,
2013-01-14 19:10:00,47.9,47.8,29.98,NNE,30,11.6,23.9,100,0.00,,SKC,0.06,VWS V14.01,2013-01-15 00:10:00,
2013-01-14 19:12:00,47.6,47.6,29.98,NNW,346,10.5,20.0,100,0.00,,SKC,0.06,VWS V14.01,2013-01-15 00:12:00,
2013-01-14 19:14:00,47.6,47.6,29.98,NNW,336,8.8,9.8,100,0.00,,SKC,0.06,VWS V14.01,2013-01-15 00:14:00,
2013-01-14 19:15:00,47.5,47.5,29.97,NNE,15,10.3,14.6,100,0.00,,SKC,0.06,VWS V14.01,2013-01-15 00:15:00,
2013-01-14 19:17:00,47.5,47.5,29.97,NE,45,9.8,19.9,100,0.00,,SKC,0.06,VWS V14.01,2013-01-15 00:17:00,
2013-01-14 19:19:00,47.5,47.5,29.98,NNE,13,8.6,16.8,100,0.00,,SKC,0.06,VWS V14.01,2013-01-15 00:19:00,
2013-01-14 19:20:00,47.4,47.4,29.98,North,6,8.3,19.9,100,0.00,,SKC,0.06,VWS V14.01,2013-01-15 00:20:00,
2013-01-14 19:22:00,47.3,47.3,29.98,NE,38,8.1,12.7,100,0.00,,SKC,0.06,VWS V14.01,2013-01-15 00:22:00,
2013-01-14 19:24:00,47.4,47.4,29.98,NNE,25,20.1,20.1,100,0.00,,SKC,0.06,VWS V14.01,2013-01-15 00:24:00,
2013-01-14 19:25:00,47.3,47.3,29.98,NNE,32,13.5,24.5,100,0.00,,SKC,0.06,VWS V14.01,2013-01-15 00:25:00,
2013-01-14 19:27:00,47.2,47.2,29.98,NNE,22,12.5,20.4,100,0.00,,SKC,0.06,VWS V14.01,2013-01-15 00:27:00,
2013-01-14 19:29:00,47.1,47.1,29.98,NNE,14,14.7,16.9,100,0.00,,SKC,0.06,VWS V14.01,2013-01-15 00:29:00,
2013-01-14 19:30:00,47.1,47.1,29.98,NNE,20,11.0,17.6,100,0.00,,SKC,0.06,VWS V14.01,2013-01-15 00:30:00,
2013-01-14 19:32:00,47.1,47.1,29.98,NE,37,10.8,18.2,100,0.00,,SKC,0.06,VWS V14.01,2013-01-15 00:32:00,
2013-01-14 19:34:00,47.1,47.1,29.98,NNW,347,6.0,17.0,100,0.00,,SKC,0.06,VWS V14.01,2013-01-15 00:34:00,
2013-01-14 19:35:00,47.1,47.1,29.98,North,11,9.3,12.9,100,0.00,,SKC,0.06,VWS V14.01,2013-01-15 00:35:00,
2013-01-14 19:37:00,47.1,47.1,29.97,NNE,22,10.7,13.5,100,0.00,,SKC,0.06,VWS V14.01,2013-01-15 00:37:00,
2013-01-14 19:39:00,47.0,47.0,29.97,NE,45,7.3,16.2,100,0.00,,SKC,0.06,VWS V14.01,2013-01-15 00:39:00,
2013-01-14 19:40:00,47.0,47.0,29.97,NE,45,11.1,11.2,100,0.00,,SKC,0.06,VWS V14.01,2013-01-15 00:40:00,
2013-01-14 19:43:00,47.1,47.1,29.97,NNE,25,7.0,7.6,100,0.00,,SKC,0.06,VWS V14.01,2013-01-15 00:43:00,
2013-01-14 19:45:00,47.0,47.0,29.97,NE,39,14.7,18.5,100,0.00,,SKC,0.06,VWS V14.01,2013-01-15 00:45:00,
2013-01-14 19:48:00,47.1,47.1,29.97,NE,37,5.5,10.5,100,0.00,,SKC,0.06,VWS V14.01,2013-01-15 00:48:00,
2013-01-14 19:50:00,47.0,47.0,29.97,NE,52,19.1,19.1,100,0.00,,SKC,0.06,VWS V14.01,2013-01-15 00:50:00,
2013-01-14 19:51:00,47.0,47.0,29.97,NE,42,11.2,19.4,100,0.00,,SKC,0.06,VWS V14.01,2013-01-15 00:51:00,
2013-01-14 19:53:00,46.9,46.9,29.97,NNE,20,7.0,10.9,100,0.00,,SKC,0.06,VWS V14.01,2013-01-15 00:53:00,
2013-01-14 19:55:00,46.9,46.9,29.97,ENE,59,8.3,12.9,100,0.00,,SKC,0.06,VWS V14.01,2013-01-15 00:55:00,
2013-01-14 19:56:00,46.9,46.9,29.97,NE,48,14.9,15.3,100,0.00,,SKC,0.06,VWS V14.01,2013-01-15 00:56:00,
2013-01-14 19:58:00,46.9,46.9,29.97,NE,42,7.0,9.8,100,0.00,,SKC,0.06,VWS V14.01,2013-01-15 00:58:00,
2013-01-14 20:00:00,46.9,46.9,29.98,NNE,30,14.3,19.3,100,0.00,,SKC,0.06,VWS V14.01,2013-01-15 01:00:00,
2013-01-14 20:01:00,46.9,46.9,29.97,NE,44,7.5,10.9,100,0.00,,SKC,0.06,VWS V14.01,2013-01-15 01:01:00,
2013-01-14 20:03:00,46.9,46.9,29.97,NE,38,14.5,14.5,100,0.00,,SKC,0.06,VWS V14.01,2013-01-15 01:03:00,
2013-01-14 20:05:00,46.9,46.9,29.97,NNE,32,7.9,11.6,100,0.00,,SKC,0.06,VWS V14.01,2013-01-15 01:05:00,
2013-01-14 20:06:00,46.9,46.9,29.97,NE,45,9.9,16.4,100,0.00,,SKC,0.06,VWS V14.01,2013-01-15 01:06:00,
2013-01-14 20:08:00,46.9,46.9,29.97,North,8,11.2,12.2,100,0.00,,SKC,0.06,VWS V14.01,2013-01-15 01:08:00,
2013-01-14 20:10:00,46.9,46.9,29.98,North,4,12.1,14.5,100,0.00,,SKC,0.06,VWS V14.01,2013-01-15 01:10:00,
2013-01-14 20:11:00,46.8,46.8,29.98,North,3,19.2,21.2,100,0.00,,SKC,0.06,VWS V14.01,2013-01-15 01:11:00,
2013-01-14 20:13:00,46.8,46.8,29.97,ENE,69,8.6,16.2,100,0.00,,SKC,0.06,VWS V14.01,2013-01-15 01:13:00,
2013-01-14 20:15:00,46.8,46.8,29.97,NE,52,16.3,19.5,100,0.00,,SKC,0.06,VWS V14.01,2013-01-15 01:15:00,
2013-01-14 20:16:00,46.7,46.7,29.97,NE,52,12.3,18.6,100,0.00,,SKC,0.06,VWS V14.01,2013-01-15 01:16:00,
2013-01-14 20:18:00,46.7,46.7,29.97,ENE,68,8.1,14.5,100,0.00,,SKC,0.06,VWS V14.01,2013-01-15 01:18:00,
2013-01-14 20:20:00,46.6,46.6,29.97,NNE,17,7.8,18.5,100,0.00,,SKC,0.06,VWS V14.01,2013-01-15 01:20:00,
2013-01-14 20:21:00,46.7,46.7,29.97,NE,42,17.6,17.6,100,0.00,,SKC,0.06,VWS V14.01,2013-01-15 01:21:00,
2013-01-14 20:22:00,46.7,46.7,29.97,NNE,13,17.1,17.5,100,0.00,,SKC,0.06,VWS V14.01,2013-01-15 01:22:00,
2013-01-14 20:23:00,46.6,46.6,29.97,NE,49,11.9,15.4,100,0.00,,SKC,0.06,VWS V14.01,2013-01-15 01:23:00,
2013-01-14 20:25:00,46.6,46.6,29.97,NNE,15,10.3,16.7,100,0.00,,SKC,0.06,VWS V14.01,2013-01-15 01:25:00,
2013-01-14 20:26:00,46.5,46.5,29.97,NNE,20,19.1,19.1,100,0.00,,SKC,0.06,VWS V14.01,2013-01-15 01:26:00,
2013-01-14 20:27:00,46.5,46.5,29.97,NNE,18,13.0,15.9,100,0.00,,SKC,0.06,VWS V14.01,2013-01-15 01:27:00,
2013-01-14 20:28:00,46.4,46.5,29.97,NE,49,12.2,15.8,100,0.00,,SKC,0.06,VWS V14.01,2013-01-15 01:28:00,
2013-01-14 20:31:00,46.4,46.4,29.97,NE,48,11.2,17.6,100,0.00,,SKC,0.06,VWS V14.01,2013-01-15 01:31:00,
2013-01-14 20:33:00,46.3,46.3,29.97,NNE,27,13.6,16.7,100,0.00,,SKC,0.06,VWS V14.01,2013-01-15 01:33:00,
2013-01-14 20:34:00,46.4,46.4,29.97,NE,49,9.0,13.2,100,0.00,,SKC,0.06,VWS V14.01,2013-01-15 01:34:00,
2013-01-14 20:36:00,46.3,46.3,29.97,NNE,30,11.4,16.3,100,0.00,,SKC,0.06,VWS V14.01,2013-01-15 01:36:00,
2013-01-14 20:38:00,46.3,46.3,29.97,NE,55,9.3,9.3,100,0.00,,SKC,0.06,VWS V14.01,2013-01-15 01:38:00,
2013-01-14 20:39:00,46.2,46.2,29.97,NNE,14,13.6,15.8,100,0.00,,SKC,0.06,VWS V14.01,2013-01-15 01:39:00,
2013-01-14 20:41:00,46.3,46.3,29.97,NE,39,13.0,16.2,100,0.00,,SKC,0.06,VWS V14.01,2013-01-15 01:41:00,
2013-01-14 20:43:00,46.2,46.2,29.97,NNE,21,13.5,13.5,100,0.00,,SKC,0.06,VWS V14.01,2013-01-15 01:43:00,
2013-01-14 20:44:00,46.2,46.2,29.97,NNE,31,10.4,13.3,100,0.00,,SKC,0.06,VWS V14.01,2013-01-15 01:44:00,
2013-01-14 20:46:00,46.2,46.2,29.97,East,82,14.5,14.5,100,0.00,,SKC,0.06,VWS V14.01,2013-01-15 01:46:00,
2013-01-14 20:48:00,46.1,46.1,29.97,NNE,13,12.4,17.6,100,0.00,,SKC,0.06,VWS V14.01,2013-01-15 01:48:00,
2013-01-14 20:49:00,46.1,46.1,29.97,East,83,7.4,15.8,100,0.00,,SKC,0.06,VWS V14.01,2013-01-15 01:49:00,
2013-01-14 20:51:00,46.0,46.0,29.97,NNE,21,9.1,10.9,100,0.00,,SKC,0.06,VWS V14.01,2013-01-15 01:51:00,
2013-01-14 20:53:00,46.0,46.0,29.97,NNE,22,13.5,13.5,100,0.00,,SKC,0.06,VWS V14.01,2013-01-15 01:53:00,
2013-01-14 20:54:00,46.0,46.1,29.96,NNE,32,12.0,12.0,100,0.00,,SKC,0.06,VWS V14.01,2013-01-15 01:54:00,
2013-01-14 20:56:00,46.0,46.0,29.96,NNE,15,9.6,11.3,100,0.00,,SKC,0.06,VWS V14.01,2013-01-15 01:56:00,
2013-01-14 20:58:00,46.0,46.0,29.97,ENE,62,8.1,12.6,100,0.00,,SKC,0.06,VWS V14.01,2013-01-15 01:58:00,
2013-01-14 20:59:00,46.0,46.0,29.97,NE,38,10.4,10.4,100,0.00,,SKC,0.06,VWS V14.01,2013-01-15 01:59:00,
2013-01-14 21:01:00,46.0,46.0,29.97,NNE,22,7.6,14.9,100,0.00,,SKC,0.06,VWS V14.01,2013-01-15 02:01:00,
2013-01-14 21:03:00,45.9,45.9,29.97,NE,41,9.8,11.5,100,0.00,,SKC,0.06,VWS V14.01,2013-01-15 02:03:00,
2013-01-14 21:04:00,45.9,45.9,29.98,NNE,32,9.1,17.0,100,0.00,,SKC,0.06,VWS V14.01,2013-01-15 02:04:00,
2013-01-14 21:06:00,45.8,45.8,29.98,North,7,15.7,16.7,100,0.00,,SKC,0.06,VWS V14.01,2013-01-15 02:06:00,
2013-01-14 21:07:00,45.8,45.8,29.98,NNE,20,12.6,16.7,100,0.00,,SKC,0.06,VWS V14.01,2013-01-15 02:07:00,
2013-01-14 21:08:00,45.8,45.8,29.97,NNE,21,11.5,16.2,100,0.00,,SKC,0.06,VWS V14.01,2013-01-15 02:08:00,
2013-01-14 21:09:00,45.7,45.7,29.97,NNE,28,16.6,16.6,100,0.00,,SKC,0.06,VWS V14.01,2013-01-15 02:09:00,
2013-01-14 21:11:00,45.7,45.7,29.97,NNE,30,14.3,18.1,100,0.00,,SKC,0.06,VWS V14.01,2013-01-15 02:11:00,
2013-01-14 21:12:00,45.7,45.7,29.97,North,6,13.9,18.1,100,0.00,,SKC,0.06,VWS V14.01,2013-01-15 02:12:00,
2013-01-14 21:13:00,45.6,45.6,29.97,NNE,27,8.7,14.5,100,0.00,,SKC,0.06,VWS V14.01,2013-01-15 02:13:00,
2013-01-14 21:14:00,45.6,45.6,29.97,NNE,24,17.5,19.3,100,0.00,,SKC,0.06,VWS V14.01,2013-01-15 02:14:00,
2013-01-14 21:16:00,45.5,45.5,29.97,NNE,30,12.4,16.5,100,0.00,,SKC,0.06,VWS V14.01,2013-01-15 02:16:00,
2013-01-14 21:17:00,45.5,45.5,29.97,NNE,20,9.3,16.5,100,0.00,,SKC,0.06,VWS V14.01,2013-01-15 02:17:00,
2013-01-14 21:18:00,45.5,45.5,29.97,East,80,12.9,12.9,100,0.00,,SKC,0.06,VWS V14.01,2013-01-15 02:18:00,
2013-01-14 21:19:00,45.5,45.5,29.97,NNE,24,14.2,19.2,100,0.00,,SKC,0.06,VWS V14.01,2013-01-15 02:19:00,
2013-01-14 21:21:00,45.4,45.4,29.97,NE,34,11.1,14.3,100,0.00,,SKC,0.06,VWS V14.01,2013-01-15 02:21:00,
2013-01-14 21:22:00,45.4,45.4,29.97,North,3,15.5,17.3,100,0.00,,SKC,0.06,VWS V14.01,2013-01-15 02:22:00,
2013-01-14 21:23:00,45.5,45.5,29.97,North,10,10.9,12.4,100,0.00,,SKC,0.06,VWS V14.01,2013-01-15 02:23:00,
2013-01-14 21:25:00,45.5,45.5,29.97,NE,42,5.5,16.7,100,0.00,,SKC,0.06,VWS V14.01,2013-01-15 02:25:00,
2013-01-14 21:26:00,45.4,45.4,29.97,NNE,25,7.1,13.7,100,0.00,,SKC,0.06,VWS V14.01,2013-01-15 02:26:00,
2013-01-14 21:27:00,45.4,45.4,29.97,North,7,9.3,10.4,100,0.00,,SKC,0.06,VWS V14.01,2013-01-15 02:27:00,
2013-01-14 21:28:00,45.5,45.5,29.97,North,359,7.7,9.8,100,0.00,,SKC,0.06,VWS V14.01,2013-01-15 02:28:00,
2013-01-14 21:30:00,45.5,45.5,29.98,NNE,22,8.3,13.8,100,0.00,,SKC,0.06,VWS V14.01,2013-01-15 02:30:00,
2013-01-14 21:32:00,45.4,45.4,29.97,NE,38,7.1,8.7,100,0.00,,SKC,0.06,VWS V14.01,2013-01-15 02:32:00,
2013-01-14 21:33:00,45.4,45.4,29.97,NNE,28,8.9,13.7,100,0.00,,SKC,0.06,VWS V14.01,2013-01-15 02:33:00,
2013-01-14 21:35:00,45.4,45.4,29.97,North,359,9.1,15.5,100,0.00,,SKC,0.06,VWS V14.01,2013-01-15 02:35:00,
2013-01-14 21:37:00,45.3,45.3,29.97,NNE,22,12.8,12.8,100,0.00,,SKC,0.06,VWS V14.01,2013-01-15 02:37:00,
2013-01-14 21:38:00,45.3,45.3,29.97,NE,35,4.7,11.0,100,0.00,,SKC,0.06,VWS V14.01,2013-01-15 02:38:00,
2013-01-14 21:40:00,45.2,45.2,29.97,NNE,28,4.8,4.8,100,0.00,,SKC,0.06,VWS V14.01,2013-01-15 02:40:00,
2013-01-14 21:42:00,45.3,45.3,29.97,East,83,7.0,8.1,100,0.00,,SKC,0.06,VWS V14.01,2013-01-15 02:42:00,
2013-01-14 21:44:00,45.2,45.2,29.97,NE,51,14.9,14.9,100,0.00,,SKC,0.06,VWS V14.01,2013-01-15 02:44:00,
2013-01-14 21:45:00,45.1,45.1,29.97,NNE,31,13.7,16.0,100,0.00,,SKC,0.06,VWS V14.01,2013-01-15 02:45:00,
2013-01-14 21:47:00,45.0,45.0,29.96,NNE,30,13.2,15.2,100,0.00,,SKC,0.06,VWS V14.01,2013-01-15 02:47:00,
2013-01-14 21:49:00,44.8,44.8,29.97,NNE,25,14.6,15.3,100,0.00,,SKC,0.06,VWS V14.01,2013-01-15 02:49:00,
2013-01-14 21:50:00,44.8,44.8,29.97,North,8,13.9,13.9,100,0.00,,SKC,0.06,VWS V14.01,2013-01-15 02:50:00,
2013-01-14 21:52:00,44.7,44.7,29.97,NE,48,6.7,11.5,100,0.00,,SKC,0.06,VWS V14.01,2013-01-15 02:52:00,
2013-01-14 21:54:00,44.7,44.7,29.97,NE,52,12.6,17.4,100,0.00,,SKC,0.06,VWS V14.01,2013-01-15 02:54:00,
2013-01-14 21:55:00,44.6,44.6,29.96,NE,35,11.0,14.5,100,0.00,,SKC,0.06,VWS V14.01,2013-01-15 02:55:00,
2013-01-14 21:57:00,44.6,44.6,29.96,NNE,31,9.6,9.6,100,0.00,,SKC,0.06,VWS V14.01,2013-01-15 02:57:00,
2013-01-14 21:59:00,44.5,44.5,29.97,NNE,27,10.4,11.5,100,0.00,,SKC,0.06,VWS V14.01,2013-01-15 02:59:00,
2013-01-14 22:00:00,44.4,44.4,29.96,NE,53,4.2,12.2,100,0.00,,SKC,0.06,VWS V14.01,2013-01-15 03:00:00,
2013-01-14 22:02:00,44.4,44.4,29.97,NE,45,8.8,8.8,100,0.00,,SKC,0.06,VWS V14.01,2013-01-15 03:02:00,
2013-01-14 22:04:00,44.3,44.3,29.97,NNE,30,15.0,15.0,100,0.00,,SKC,0.06,VWS V14.01,2013-01-15 03:04:00,
2013-01-14 22:05:00,44.3,44.3,29.97,NNE,22,11.9,15.7,100,0.00,,SKC,0.06,VWS V14.01,2013-01-15 03:05:00,
2013-01-14 22:07:00,44.2,44.2,29.96,NE,38,8.8,11.9,100,0.00,,SKC,0.06,VWS V14.01,2013-01-15 03:07:00,
2013-01-14 22:09:00,44.2,44.2,29.96,NE,38,7.7,8.4,100,0.00,,SKC,0.06,VWS V14.01,2013-01-15 03:09:00,
2013-01-14 22:10:00,44.1,44.1,29.96,NE,49,8.9,15.2,100,0.00,,SKC,0.06,VWS V14.01,2013-01-15 03:10:00,
2013-01-14 22:12:00,44.1,44.1,29.96,NE,41,7.9,10.7,100,0.00,,SKC,0.06,VWS V14.01,2013-01-15 03:12:00,
2013-01-14 22:14:00,44.1,44.1,29.97,North,8,11.1,14.0,100,0.00,,SKC,0.06,VWS V14.01,2013-01-15 03:14:00,
2013-01-14 22:16:00,44.1,44.1,29.97,NE,53,5.9,11.2,100,0.00,,SKC,0.06,VWS V14.01,2013-01-15 03:16:00,
2013-01-14 22:17:00,44.1,44.1,29.97,NE,41,7.6,9.6,100,0.00,,SKC,0.06,VWS V14.01,2013-01-15 03:17:00,
2013-01-14 22:19:00,44.0,44.0,29.97,NNE,21,5.8,15.9,100,0.00,,SKC,0.06,VWS V14.01,2013-01-15 03:19:00,
2013-01-14 22:21:00,44.0,44.1,29.97,NE,42,3.8,9.7,100,0.00,,SKC,0.06,VWS V14.01,2013-01-15 03:21:00,
2013-01-14 22:22:00,44.0,44.0,29.97,NE,34,9.8,9.8,100,0.00,,SKC,0.06,VWS V14.01,2013-01-15 03:22:00,
2013-01-14 22:23:00,44.0,44.0,29.97,NNE,24,7.7,11.6,100,0.00,,SKC,0.06,VWS V14.01,2013-01-15 03:23:00,
2013-01-14 22:25:00,43.9,43.9,29.97,NNE,13,12.3,15.6,100,0.00,,SKC,0.06,VWS V14.01,2013-01-15 03:25:00,
2013-01-14 22:26:00,43.9,43.9,29.97,ENE,72,12.7,15.8,100,0.00,,SKC,0.06,VWS V14.01,2013-01-15 03:26:00,
2013-01-14 22:27:00,43.7,43.7,29.97,NE,44,6.6,13.7,100,0.00,,SKC,0.06,VWS V14.01,2013-01-15 03:27:00,
2013-01-14 22:28:00,43.7,43.7,29.97,NE,49,6.3,10.7,100,0.00,,SKC,0.06,VWS V14.01,2013-01-15 03:28:00,
2013-01-14 22:30:00,43.7,43.7,29.97,NNE,14,9.6,13.1,100,0.00,,SKC,0.06,VWS V14.01,2013-01-15 03:30:00,
2013-01-14 22:31:00,43.6,43.6,29.97,North,7,7.7,12.1,100,0.00,,SKC,0.06,VWS V14.01,2013-01-15 03:31:00,
2013-01-14 22:32:00,43.6,43.6,29.97,NNE,18,4.2,7.6,100,0.00,,SKC,0.06,VWS V14.01,2013-01-15 03:32:00,
2013-01-14 22:33:00,43.6,43.6,29.97,NE,48,4.1,6.3,100,0.00,,SKC,0.06,VWS V14.01,2013-01-15 03:33:00,
2013-01-14 22:35:00,43.6,43.6,29.97,ENE,69,8.7,10.3,100,0.00,,SKC,0.06,VWS V14.01,2013-01-15 03:35:00,
2013-01-14 22:36:00,43.6,43.5,29.97,North,4,13.2,15.3,100,0.00,,SKC,0.06,VWS V14.01,2013-01-15 03:36:00,
2013-01-14 22:37:00,43.5,43.5,29.97,NNE,22,11.2,11.5,100,0.00,,SKC,0.06,VWS V14.01,2013-01-15 03:37:00,
2013-01-14 22:38:00,43.5,43.5,29.97,NNE,25,10.9,10.9,100,0.00,,SKC,0.06,VWS V14.01,2013-01-15 03:38:00,
2013-01-14 22:40:00,43.5,43.5,29.97,NNE,30,8.9,9.4,100,0.00,,SKC,0.06,VWS V14.01,2013-01-15 03:40:00,
2013-01-14 22:41:00,43.5,43.5,29.97,NE,49,8.5,11.6,100,0.00,,SKC,0.06,VWS V14.01,2013-01-15 03:41:00,
2013-01-14 22:42:00,43.6,43.6,29.97,NE,46,8.1,14.2,100,0.00,,SKC,0.06,VWS V14.01,2013-01-15 03:42:00,
2013-01-14 22:43:00,43.5,43.5,29.97,NE,44,2.9,7.5,100,0.00,,SKC,0.06,VWS V14.01,2013-01-15 03:43:00,
2013-01-14 22:45:00,43.6,43.6,29.97,NE,46,7.0,7.0,100,0.00,,SKC,0.06,VWS V14.01,2013-01-15 03:45:00,
2013-01-14 22:46:00,43.6,43.6,29.97,NNE,24,2.9,5.0,100,0.00,,SKC,0.06,VWS V14.01,2013-01-15 03:46:00,
2013-01-14 22:47:00,43.6,43.6,29.97,NNE,20,8.3,8.8,100,0.00,,SKC,0.06,VWS V14.01,2013-01-15 03:47:00,
2013-01-14 22:48:00,43.6,43.6,29.97,NNE,28,6.8,10.7,100,0.00,,SKC,0.06,VWS V14.01,2013-01-15 03:48:00,
2013-01-14 22:50:00,43.6,43.6,29.97,NNE,15,6.5,7.6,100,0.00,,SKC,0.06,VWS V14.01,2013-01-15 03:50:00,
2013-01-14 22:51:00,43.5,43.5,29.97,NE,35,5.8,9.3,100,0.01,,SKC,0.07,VWS V14.01,2013-01-15 03:51:00,
2013-01-14 22:52:00,43.5,43.5,29.97,NNE,20,7.2,11.0,100,0.01,,SKC,0.07,VWS V14.01,2013-01-15 03:52:00,
2013-01-14 22:53:00,43.6,43.6,29.97,NNE,30,7.0,8.1,100,0.01,,SKC,0.07,VWS V14.01,2013-01-15 03:53:00,
2013-01-14 22:55:00,43.6,43.6,29.97,NNE,13,11.3,11.8,100,0.01,,SKC,0.07,VWS V14.01,2013-01-15 03:55:00,
2013-01-14 22:56:00,43.5,43.5,29.97,NNE,24,12.0,12.2,100,0.01,,SKC,0.07,VWS V14.01,2013-01-15 03:56:00,
2013-01-14 22:57:00,43.4,43.4,29.97,NNE,13,13.4,13.4,100,0.01,,SKC,0.07,VWS V14.01,2013-01-15 03:57:00,
2013-01-14 22:58:00,43.5,43.5,29.97,NNE,22,5.0,11.2,100,0.01,,SKC,0.07,VWS V14.01,2013-01-15 03:58:00,
2013-01-14 23:00:00,43.5,43.5,29.97,NE,52,4.5,8.0,100,0.01,,SKC,0.07,VWS V14.01,2013-01-15 04:00:00,
2013-01-14 23:01:00,43.5,43.5,29.97,NE,34,9.6,9.6,100,0.01,,SKC,0.07,VWS V14.01,2013-01-15 04:01:00,
2013-01-14 23:03:00,43.3,43.3,29.97,NNE,31,9.9,10.2,100,0.02,,SKC,0.08,VWS V14.01,2013-01-15 04:03:00,
2013-01-14 23:05:00,43.3,43.3,29.97,NE,45,6.3,11.7,100,0.03,,SKC,0.09,VWS V14.01,2013-01-15 04:05:00,
2013-01-14 23:06:00,43.3,43.3,29.97,NE,49,9.6,11.3,100,0.03,,SKC,0.09,VWS V14.01,2013-01-15 04:06:00,
2013-01-14 23:08:00,43.3,43.3,29.97,NE,34,9.3,11.1,100,0.04,,SKC,0.10,VWS V14.01,2013-01-15 04:08:00,
2013-01-14 23:09:00,43.3,43.3,29.97,NE,52,8.9,11.1,100,0.04,,SKC,0.10,VWS V14.01,2013-01-15 04:09:00,
2013-01-14 23:10:00,43.2,43.2,29.97,ENE,59,6.2,6.2,100,0.04,,SKC,0.10,VWS V14.01,2013-01-15 04:10:00,
2013-01-14 23:11:00,43.2,43.2,29.97,ENE,75,7.8,9.8,100,0.04,,SKC,0.10,VWS V14.01,2013-01-15 04:11:00,
2013-01-14 23:13:00,43.1,43.1,29.97,NE,46,8.8,12.7,100,0.05,,SKC,0.11,VWS V14.01,2013-01-15 04:13:00,
2013-01-14 23:14:00,43.1,43.1,29.97,ENE,60,8.3,12.7,100,0.05,,SKC,0.11,VWS V14.01,2013-01-15 04:14:00,
2013-01-14 23:15:00,43.1,43.1,29.96,NNE,28,8.7,9.1,100,0.06,,SKC,0.12,VWS V14.01,2013-01-15 04:15:00,
2013-01-14 23:16:00,43.0,43.0,29.96,NE,35,11.7,11.7,100,0.07,,SKC,0.13,VWS V14.01,2013-01-15 04:16:00,
2013-01-14 23:19:00,43.1,43.1,29.96,North,350,7.0,13.1,100,0.10,,SKC,0.16,VWS V14.01,2013-01-15 04:19:00,
2013-01-14 23:20:00,43.0,43.0,29.96,NE,37,8.6,14.1,100,0.11,,SKC,0.17,VWS V14.01,2013-01-15 04:20:00,
2013-01-14 23:21:00,43.1,43.1,29.96,NNE,31,7.1,7.7,100,0.11,,SKC,0.17,VWS V14.01,2013-01-15 04:21:00,
2013-01-14 23:24:00,43.1,43.1,29.96,East,80,6.8,8.6,100,0.11,,SKC,0.17,VWS V14.01,2013-01-15 04:24:00,
2013-01-14 23:25:00,43.0,43.0,29.96,NE,41,8.0,11.1,100,0.13,,SKC,0.18,VWS V14.01,2013-01-15 04:25:00,
2013-01-14 23:26:00,43.0,43.0,29.96,NE,42,6.2,11.6,100,0.14,,SKC,0.20,VWS V14.01,2013-01-15 04:26:00,
2013-01-14 23:29:00,43.0,43.0,29.96,East,94,7.4,7.4,100,0.14,,SKC,0.20,VWS V14.01,2013-01-15 04:29:00,
2013-01-14 23:30:00,43.1,43.1,29.96,East,89,4.4,8.6,100,0.15,,SKC,0.21,VWS V14.01,2013-01-15 04:30:00,
2013-01-14 23:31:00,43.1,43.1,29.95,ENE,73,8.4,9.1,100,0.16,,SKC,0.22,VWS V14.01,2013-01-15 04:31:00,
2013-01-14 23:34:00,43.1,43.1,29.95,NNE,32,8.0,8.7,100,0.17,,SKC,0.23,VWS V14.01,2013-01-15 04:34:00,
2013-01-14 23:35:00,43.2,43.2,29.95,NNE,25,4.2,9.1,100,0.17,,SKC,0.23,VWS V14.01,2013-01-15 04:35:00,
2013-01-14 23:36:00,43.2,43.2,29.95,NNE,31,6.3,7.1,100,0.17,,SKC,0.23,VWS V14.01,2013-01-15 04:36:00,
2013-01-14 23:39:00,43.2,43.2,29.95,ENE,69,5.0,7.6,100,0.17,,SKC,0.23,VWS V14.01,2013-01-15 04:39:00,
2013-01-14 23:40:00,43.1,43.1,29.95,East,89,7.9,7.9,100,0.17,,SKC,0.23,VWS V14.01,2013-01-15 04:40:00,
2013-01-14 23:41:00,43.1,43.1,29.95,NE,37,7.9,11.2,100,0.17,,SKC,0.23,VWS V14.01,2013-01-15 04:41:00,
2013-01-14 23:44:00,43.1,43.1,29.95,NE,38,4.0,6.2,100,0.17,,SKC,0.23,VWS V14.01,2013-01-15 04:44:00,
2013-01-14 23:45:00,43.2,43.2,29.96,NNE,25,6.2,8.6,100,0.17,,SKC,0.23,VWS V14.01,2013-01-15 04:45:00,
2013-01-14 23:46:00,43.1,43.1,29.96,NNE,32,7.2,12.1,100,0.17,,SKC,0.23,VWS V14.01,2013-01-15 04:46:00,
2013-01-14 23:49:00,43.2,43.2,29.98,NNW,329,6.1,9.8,100,0.17,,SKC,0.23,VWS V14.01,2013-01-15 04:49:00,
2013-01-14 23:50:00,43.2,43.2,29.98,NNE,18,6.6,8.8,100,0.17,,SKC,0.23,VWS V14.01,2013-01-15 04:50:00,
2013-01-14 23:51:00,43.1,43.1,29.97,NE,35,6.7,7.3,100,0.16,,SKC,0.23,VWS V14.01,2013-01-15 04:51:00,
2013-01-14 23:54:00,43.2,43.1,29.97,North,1,10.6,10.6,100,0.16,,SKC,0.23,VWS V14.01,2013-01-15 04:54:00,